Wetterdaten: aktuell Montag, 19.08.2019 09:01
Datum Zeit Temp. 2m Feuchte 2m Luftdruck Regen Wind Richtung Richtung ET Taupunkt Windchill Windben
19.08.2019 09:01 16,9 C 83 % 1017,1 hPa 0,0 l/m 16,1 km/h (3 Bft) SW 225 0,000 mm 14,0 C 13,2 C 17,7 km/h (3 Bft)
19.08.2019 09:00 16,9 C 83 % 1017,1 hPa 0,0 l/m 17,7 km/h (3 Bft) SW 225 0,000 mm 14,0 C 12,8 C 20,9 km/h (4 Bft)
19.08.2019 08:59 16,9 C 83 % 1017,1 hPa 0,0 l/m 16,1 km/h (3 Bft) SW 225 0,000 mm 14,0 C 13,2 C 17,7 km/h (3 Bft)
19.08.2019 08:58 16,8 C 83 % 1017,0 hPa 0,0 l/m 16,1 km/h (3 Bft) SW 225 0,000 mm 13,9 C 13,1 C 19,3 km/h (3 Bft)
19.08.2019 08:57 16,8 C 83 % 1017,1 hPa 0,0 l/m 16,1 km/h (3 Bft) SW 225 0,000 mm 13,9 C 13,1 C 17,7 km/h (3 Bft)
19.08.2019 08:56 16,8 C 83 % 1017,1 hPa 0,0 l/m 16,1 km/h (3 Bft) SW 225 0,000 mm 13,9 C 13,1 C 17,7 km/h (3 Bft)
19.08.2019 08:55 16,8 C 83 % 1017,1 hPa 0,0 l/m 14,5 km/h (3 Bft) SW 225 0,000 mm 13,9 C 13,5 C 19,3 km/h (3 Bft)
19.08.2019 08:54 16,8 C 82 % 1017,1 hPa 0,0 l/m 16,1 km/h (3 Bft) SW 225 0,000 mm 13,7 C 13,1 C 19,3 km/h (3 Bft)
19.08.2019 08:53 16,8 C 83 % 1017,1 hPa 0,0 l/m 16,1 km/h (3 Bft) SW 225 0,000 mm 13,9 C 13,1 C 19,3 km/h (3 Bft)
19.08.2019 08:52 16,7 C 83 % 1017,1 hPa 0,0 l/m 19,3 km/h (3 Bft) SW 225 0,000 mm 13,8 C 12,1 C 22,5 km/h (4 Bft)
19.08.2019 08:51 16,7 C 84 % 1017,2 hPa 0,0 l/m 17,7 km/h (3 Bft) SW 225 0,000 mm 14,0 C 12,5 C 20,9 km/h (4 Bft)
19.08.2019 08:50 16,7 C 84 % 1017,2 hPa 0,0 l/m 16,1 km/h (3 Bft) SW 225 0,000 mm 14,0 C 12,9 C 20,9 km/h (4 Bft)
19.08.2019 08:49 16,7 C 84 % 1017,2 hPa 0,0 l/m 17,7 km/h (3 Bft) SW 225 0,000 mm 14,0 C 12,5 C 22,5 km/h (4 Bft)
19.08.2019 08:48 16,7 C 84 % 1017,2 hPa 0,0 l/m 19,3 km/h (3 Bft) SW 225 0,000 mm 14,0 C 12,1 C 22,5 km/h (4 Bft)
19.08.2019 08:47 16,7 C 84 % 1017,1 hPa 0,0 l/m 19,3 km/h (3 Bft) SW 225 0,000 mm 14,0 C 12,1 C 24,1 km/h (4 Bft)
19.08.2019 08:46 16,7 C 84 % 1017,1 hPa 0,0 l/m 20,9 km/h (4 Bft) SW 225 0,000 mm 14,0 C 11,7 C 24,1 km/h (4 Bft)
19.08.2019 08:45 16,7 C 84 % 1017,2 hPa 0,0 l/m 16,1 km/h (3 Bft) SW 225 0,000 mm 14,0 C 12,9 C 19,3 km/h (3 Bft)
19.08.2019 08:44 16,7 C 84 % 1017,1 hPa 0,0 l/m 16,1 km/h (3 Bft) SW 225 0,000 mm 14,0 C 12,9 C 19,3 km/h (3 Bft)
19.08.2019 08:43 16,7 C 84 % 1017,1 hPa 0,0 l/m 17,7 km/h (3 Bft) SW 225 0,000 mm 14,0 C 12,5 C 20,9 km/h (4 Bft)
19.08.2019 08:42 16,7 C 84 % 1017,1 hPa 0,0 l/m 17,7 km/h (3 Bft) SW 225 0,000 mm 14,0 C 12,5 C 20,9 km/h (4 Bft)
19.08.2019 08:41 16,7 C 84 % 1017,1 hPa 0,0 l/m 17,7 km/h (3 Bft) SW 225 0,000 mm 14,0 C 12,5 C 22,5 km/h (4 Bft)
19.08.2019 08:40 16,7 C 84 % 1017,1 hPa 0,0 l/m 16,1 km/h (3 Bft) SW 225 0,000 mm 14,0 C 12,9 C 22,5 km/h (4 Bft)
19.08.2019 08:39 16,7 C 84 % 1017,1 hPa 0,0 l/m 17,7 km/h (3 Bft) SW 225 0,000 mm 14,0 C 12,5 C 20,9 km/h (4 Bft)
19.08.2019 08:38 16,7 C 84 % 1017,1 hPa 0,0 l/m 17,7 km/h (3 Bft) SW 225 0,000 mm 14,0 C 12,5 C 20,9 km/h (4 Bft)
19.08.2019 08:37 16,7 C 83 % 1017,0 hPa 0,0 l/m 17,7 km/h (3 Bft) SW 225 0,000 mm 13,8 C 12,5 C 20,9 km/h (4 Bft)
19.08.2019 08:36 16,7 C 83 % 1017,1 hPa 0,0 l/m 19,3 km/h (3 Bft) SW 225 0,000 mm 13,8 C 12,1 C 24,1 km/h (4 Bft)
19.08.2019 08:35 16,7 C 83 % 1017,0 hPa 0,0 l/m 20,9 km/h (4 Bft) SW 225 0,000 mm 13,8 C 11,7 C 25,7 km/h (4 Bft)
19.08.2019 08:34 16,7 C 83 % 1017,0 hPa 0,0 l/m 19,3 km/h (3 Bft) SW 225 0,000 mm 13,8 C 12,1 C 22,5 km/h (4 Bft)
19.08.2019 08:33 16,7 C 83 % 1016,9 hPa 0,0 l/m 19,3 km/h (3 Bft) SW 225 0,000 mm 13,8 C 12,1 C 22,5 km/h (4 Bft)
19.08.2019 08:32 16,6 C 83 % 1016,9 hPa 0,0 l/m 16,1 km/h (3 Bft) SW 225 0,000 mm 13,7 C 12,8 C 19,3 km/h (3 Bft)
19.08.2019 08:31 16,6 C 83 % 1017,0 hPa 0,0 l/m 19,3 km/h (3 Bft) SW 225 0,000 mm 13,7 C 12,0 C 22,5 km/h (4 Bft)
19.08.2019 08:30 16,6 C 83 % 1017,0 hPa 0,0 l/m 20,9 km/h (4 Bft) SW 225 0,000 mm 13,7 C 11,6 C 24,1 km/h (4 Bft)
19.08.2019 08:29 16,6 C 83 % 1016,9 hPa 0,0 l/m 16,1 km/h (3 Bft) SW 225 0,000 mm 13,7 C 12,8 C 20,9 km/h (4 Bft)
19.08.2019 08:28 16,6 C 83 % 1016,9 hPa 0,0 l/m 17,7 km/h (3 Bft) SW 225 0,000 mm 13,7 C 12,4 C 20,9 km/h (4 Bft)
19.08.2019 08:27 16,6 C 83 % 1016,9 hPa 0,0 l/m 17,7 km/h (3 Bft) SW 225 0,000 mm 13,7 C 12,4 C 22,5 km/h (4 Bft)
19.08.2019 08:26 16,6 C 83 % 1016,9 hPa 0,0 l/m 19,3 km/h (3 Bft) SW 225 0,000 mm 13,7 C 12,0 C 22,5 km/h (4 Bft)
19.08.2019 08:25 16,6 C 84 % 1016,8 hPa 0,0 l/m 17,7 km/h (3 Bft) SW 225 0,000 mm 13,9 C 12,4 C 20,9 km/h (4 Bft)
19.08.2019 08:24 16,6 C 84 % 1016,9 hPa 0,0 l/m 19,3 km/h (3 Bft) SW 225 0,000 mm 13,9 C 12,0 C 22,5 km/h (4 Bft)
19.08.2019 08:23 16,5 C 84 % 1016,9 hPa 0,0 l/m 17,7 km/h (3 Bft) SW 225 0,000 mm 13,8 C 12,3 C 24,1 km/h (4 Bft)
19.08.2019 08:22 16,5 C 84 % 1016,8 hPa 0,0 l/m 17,7 km/h (3 Bft) SW 225 0,000 mm 13,8 C 12,3 C 22,5 km/h (4 Bft)
19.08.2019 08:21 16,5 C 84 % 1016,8 hPa 0,0 l/m 19,3 km/h (3 Bft) SW 225 0,000 mm 13,8 C 11,9 C 22,5 km/h (4 Bft)
19.08.2019 08:20 16,5 C 85 % 1016,8 hPa 0,0 l/m 17,7 km/h (3 Bft) SW 225 0,000 mm 14,0 C 12,3 C 22,5 km/h (4 Bft)
19.08.2019 08:19 16,5 C 85 % 1016,9 hPa 0,0 l/m 16,1 km/h (3 Bft) SW 225 0,000 mm 14,0 C 12,7 C 22,5 km/h (4 Bft)
19.08.2019 08:18 16,5 C 85 % 1016,8 hPa 0,0 l/m 17,7 km/h (3 Bft) SW 225 0,000 mm 14,0 C 12,3 C 20,9 km/h (4 Bft)
19.08.2019 08:17 16,5 C 85 % 1016,8 hPa 0,0 l/m 14,5 km/h (3 Bft) SW 225 0,000 mm 14,0 C 13,2 C 16,1 km/h (3 Bft)
19.08.2019 08:16 16,5 C 85 % 1016,8 hPa 0,0 l/m 14,5 km/h (3 Bft) SW 225 0,000 mm 14,0 C 13,2 C 16,1 km/h (3 Bft)
19.08.2019 08:15 16,4 C 85 % 1016,8 hPa 0,0 l/m 16,1 km/h (3 Bft) SW 225 0,000 mm 13,9 C 12,6 C 19,3 km/h (3 Bft)
19.08.2019 08:14 16,4 C 85 % 1016,8 hPa 0,0 l/m 16,1 km/h (3 Bft) SW 225 0,000 mm 13,9 C 12,6 C 19,3 km/h (3 Bft)
19.08.2019 08:13 16,4 C 85 % 1016,8 hPa 0,0 l/m 17,7 km/h (3 Bft) S-SW 202 0,000 mm 13,9 C 12,1 C 20,9 km/h (4 Bft)
19.08.2019 08:12 16,4 C 84 % 1016,8 hPa 0,0 l/m 16,1 km/h (3 Bft) SW 225 0,000 mm 13,7 C 12,6 C 20,9 km/h (4 Bft)
19.08.2019 08:11 16,4 C 84 % 1016,8 hPa 0,0 l/m 19,3 km/h (3 Bft) SW 225 0,000 mm 13,7 C 11,7 C 22,5 km/h (4 Bft)
19.08.2019 08:10 16,4 C 85 % 1016,7 hPa 0,0 l/m 20,9 km/h (4 Bft) SW 225 0,000 mm 13,9 C 11,3 C 24,1 km/h (4 Bft)
19.08.2019 08:09 16,4 C 85 % 1016,7 hPa 0,0 l/m 17,7 km/h (3 Bft) SW 225 0,000 mm 13,9 C 12,1 C 20,9 km/h (4 Bft)
19.08.2019 08:08 16,4 C 84 % 1016,7 hPa 0,0 l/m 17,7 km/h (3 Bft) SW 225 0,000 mm 13,7 C 12,1 C 20,9 km/h (4 Bft)
19.08.2019 08:07 16,4 C 84 % 1016,7 hPa 0,0 l/m 19,3 km/h (3 Bft) SW 225 0,000 mm 13,7 C 11,7 C 22,5 km/h (4 Bft)
19.08.2019 08:06 16,4 C 84 % 1016,8 hPa 0,0 l/m 16,1 km/h (3 Bft) SW 225 0,000 mm 13,7 C 12,6 C 19,3 km/h (3 Bft)
19.08.2019 08:05 16,4 C 84 % 1016,8 hPa 0,0 l/m 17,7 km/h (3 Bft) SW 225 0,000 mm 13,7 C 12,1 C 22,5 km/h (4 Bft)
19.08.2019 08:04 16,4 C 84 % 1016,7 hPa 0,0 l/m 20,9 km/h (4 Bft) SW 225 0,000 mm 13,7 C 11,3 C 24,1 km/h (4 Bft)
19.08.2019 08:03 16,4 C 85 % 1016,8 hPa 0,0 l/m 17,7 km/h (3 Bft) SW 225 0,000 mm 13,9 C 12,1 C 20,9 km/h (4 Bft)
19.08.2019 08:02 16,4 C 85 % 1016,7 hPa 0,0 l/m 19,3 km/h (3 Bft) SW 225 0,000 mm 13,9 C 11,7 C 22,5 km/h (4 Bft)
19.08.2019 08:01 16,4 C 85 % 1016,6 hPa 0,0 l/m 20,9 km/h (4 Bft) SW 225 0,000 mm 13,9 C 11,3 C 27,4 km/h (4 Bft)
19.08.2019 08:00 16,4 C 85 % 1016,7 hPa 0,0 l/m 16,1 km/h (3 Bft) SW 225 0,000 mm 13,9 C 12,6 C 22,5 km/h (4 Bft)
19.08.2019 07:59 16,4 C 85 % 1016,8 hPa 0,0 l/m 17,7 km/h (3 Bft) SW 225 0,000 mm 13,9 C 12,1 C 20,9 km/h (4 Bft)
19.08.2019 07:58 16,4 C 85 % 1016,7 hPa 0,0 l/m 17,7 km/h (3 Bft) SW 225 0,000 mm 13,9 C 12,1 C 22,5 km/h (4 Bft)
19.08.2019 07:57 16,4 C 85 % 1016,8 hPa 0,0 l/m 16,1 km/h (3 Bft) SW 225 0,000 mm 13,9 C 12,6 C 20,9 km/h (4 Bft)
19.08.2019 07:56 16,4 C 85 % 1016,7 hPa 0,0 l/m 17,7 km/h (3 Bft) SW 225 0,000 mm 13,9 C 12,1 C 20,9 km/h (4 Bft)
19.08.2019 07:55 16,4 C 85 % 1016,6 hPa 0,0 l/m 19,3 km/h (3 Bft) SW 225 0,000 mm 13,9 C 11,7 C 24,1 km/h (4 Bft)
19.08.2019 07:54 16,5 C 84 % 1016,7 hPa 0,0 l/m 16,1 km/h (3 Bft) S-SW 202 0,000 mm 13,8 C 12,7 C 20,9 km/h (4 Bft)
19.08.2019 07:53 16,5 C 85 % 1016,7 hPa 0,0 l/m 16,1 km/h (3 Bft) SW 225 0,000 mm 14,0 C 12,7 C 22,5 km/h (4 Bft)
19.08.2019 07:52 16,5 C 84 % 1016,7 hPa 0,0 l/m 12,9 km/h (3 Bft) S-SW 202 0,000 mm 13,8 C 13,7 C 19,3 km/h (3 Bft)
19.08.2019 07:51 16,6 C 84 % 1016,8 hPa 0,0 l/m 16,1 km/h (3 Bft) SW 225 0,000 mm 13,9 C 12,8 C 20,9 km/h (4 Bft)
19.08.2019 07:50 16,6 C 84 % 1016,7 hPa 0,0 l/m 16,1 km/h (3 Bft) S-SW 202 0,000 mm 13,9 C 12,8 C 19,3 km/h (3 Bft)
19.08.2019 07:49 16,6 C 84 % 1016,8 hPa 0,0 l/m 17,7 km/h (3 Bft) SW 225 0,000 mm 13,9 C 12,4 C 24,1 km/h (4 Bft)
19.08.2019 07:48 16,6 C 84 % 1016,7 hPa 0,0 l/m 16,1 km/h (3 Bft) S-SW 202 0,000 mm 13,9 C 12,8 C 20,9 km/h (4 Bft)
19.08.2019 07:47 16,6 C 84 % 1016,7 hPa 0,0 l/m 14,5 km/h (3 Bft) SW 225 0,000 mm 13,9 C 13,3 C 19,3 km/h (3 Bft)
19.08.2019 07:46 16,6 C 84 % 1016,6 hPa 0,0 l/m 14,5 km/h (3 Bft) S-SW 202 0,000 mm 13,9 C 13,3 C 19,3 km/h (3 Bft)
19.08.2019 07:45 16,6 C 84 % 1016,7 hPa 0,0 l/m 14,5 km/h (3 Bft) S-SW 202 0,000 mm 13,9 C 13,3 C 20,9 km/h (4 Bft)
19.08.2019 07:44 16,6 C 83 % 1016,6 hPa 0,0 l/m 16,1 km/h (3 Bft) SW 225 0,000 mm 13,7 C 12,8 C 20,9 km/h (4 Bft)
19.08.2019 07:43 16,6 C 83 % 1016,5 hPa 0,0 l/m 16,1 km/h (3 Bft) SW 225 0,000 mm 13,7 C 12,8 C 19,3 km/h (3 Bft)
19.08.2019 07:42 16,7 C 83 % 1016,5 hPa 0,0 l/m 14,5 km/h (3 Bft) SW 225 0,000 mm 13,8 C 13,4 C 17,7 km/h (3 Bft)
19.08.2019 07:41 16,7 C 83 % 1016,5 hPa 0,0 l/m 16,1 km/h (3 Bft) SW 225 0,000 mm 13,8 C 12,9 C 19,3 km/h (3 Bft)
19.08.2019 07:40 16,7 C 83 % 1016,5 hPa 0,0 l/m 9,7 km/h (2 Bft) SW 225 0,000 mm 13,8 C 15,1 C 12,9 km/h (3 Bft)
19.08.2019 07:39 16,7 C 83 % 1016,4 hPa 0,0 l/m 12,9 km/h (3 Bft) SW 225 0,000 mm 13,8 C 13,9 C 16,1 km/h (3 Bft)
19.08.2019 07:38 16,7 C 83 % 1016,4 hPa 0,0 l/m 14,5 km/h (3 Bft) SW 225 0,000 mm 13,8 C 13,4 C 17,7 km/h (3 Bft)
19.08.2019 07:37 16,7 C 83 % 1016,5 hPa 0,0 l/m 11,3 km/h (2 Bft) SW 225 0,000 mm 13,8 C 14,5 C 12,9 km/h (3 Bft)
19.08.2019 07:36 16,7 C 83 % 1016,5 hPa 0,0 l/m 14,5 km/h (3 Bft) SW 225 0,000 mm 13,8 C 13,4 C 17,7 km/h (3 Bft)
19.08.2019 07:35 16,7 C 83 % 1016,4 hPa 0,0 l/m 12,9 km/h (3 Bft) SW 225 0,000 mm 13,8 C 13,9 C 17,7 km/h (3 Bft)
19.08.2019 07:34 16,7 C 83 % 1016,4 hPa 0,0 l/m 11,3 km/h (2 Bft) SW 225 0,000 mm 13,8 C 14,5 C 14,5 km/h (3 Bft)
19.08.2019 07:33 16,7 C 83 % 1016,4 hPa 0,0 l/m 9,7 km/h (2 Bft) SW 225 0,000 mm 13,8 C 15,1 C 12,9 km/h (3 Bft)
19.08.2019 07:32 16,7 C 82 % 1016,5 hPa 0,0 l/m 12,9 km/h (3 Bft) SW 225 0,000 mm 13,6 C 13,9 C 16,1 km/h (3 Bft)
19.08.2019 07:31 16,7 C 82 % 1016,4 hPa 0,0 l/m 11,3 km/h (2 Bft) SW 225 0,000 mm 13,6 C 14,5 C 12,9 km/h (3 Bft)
19.08.2019 07:30 16,7 C 82 % 1016,5 hPa 0,0 l/m 11,3 km/h (2 Bft) SW 225 0,000 mm 13,6 C 14,5 C 14,5 km/h (3 Bft)
19.08.2019 07:29 16,7 C 82 % 1016,4 hPa 0,0 l/m 12,9 km/h (3 Bft) SW 225 0,000 mm 13,6 C 13,9 C 14,5 km/h (3 Bft)
19.08.2019 07:28 16,8 C 82 % 1016,5 hPa 0,0 l/m 12,9 km/h (3 Bft) SW 225 0,000 mm 13,7 C 14,0 C 17,7 km/h (3 Bft)
19.08.2019 07:27 16,8 C 82 % 1016,5 hPa 0,0 l/m 14,5 km/h (3 Bft) SW 225 0,000 mm 13,7 C 13,5 C 17,7 km/h (3 Bft)
19.08.2019 07:26 16,8 C 82 % 1016,4 hPa 0,0 l/m 19,3 km/h (3 Bft) SW 225 0,000 mm 13,7 C 12,2 C 22,5 km/h (4 Bft)
19.08.2019 07:25 16,8 C 82 % 1016,5 hPa 0,0 l/m 19,3 km/h (3 Bft) SW 225 0,000 mm 13,7 C 12,2 C 22,5 km/h (4 Bft)
19.08.2019 07:24 16,8 C 81 % 1016,5 hPa 0,0 l/m 20,9 km/h (4 Bft) SW 225 0,000 mm 13,5 C 11,9 C 25,7 km/h (4 Bft)
19.08.2019 07:23 16,8 C 81 % 1016,5 hPa 0,0 l/m 17,7 km/h (3 Bft) SW 225 0,000 mm 13,5 C 12,6 C 22,5 km/h (4 Bft)
19.08.2019 07:22 16,8 C 81 % 1016,5 hPa 0,0 l/m 17,7 km/h (3 Bft) SW 225 0,000 mm 13,5 C 12,6 C 20,9 km/h (4 Bft)
19.08.2019 07:21 16,8 C 81 % 1016,4 hPa 0,0 l/m 17,7 km/h (3 Bft) SW 225 0,000 mm 13,5 C 12,6 C 22,5 km/h (4 Bft)
19.08.2019 07:20 16,8 C 81 % 1016,4 hPa 0,0 l/m 17,7 km/h (3 Bft) SW 225 0,000 mm 13,5 C 12,6 C 22,5 km/h (4 Bft)
19.08.2019 07:19 16,8 C 81 % 1016,4 hPa 0,0 l/m 17,7 km/h (3 Bft) SW 225 0,000 mm 13,5 C 12,6 C 22,5 km/h (4 Bft)
19.08.2019 07:18 16,9 C 81 % 1016,4 hPa 0,0 l/m 16,1 km/h (3 Bft) SW 225 0,000 mm 13,6 C 13,2 C 20,9 km/h (4 Bft)
19.08.2019 07:17 16,9 C 81 % 1016,3 hPa 0,0 l/m 19,3 km/h (3 Bft) SW 225 0,000 mm 13,6 C 12,4 C 20,9 km/h (4 Bft)
19.08.2019 07:16 16,9 C 81 % 1016,4 hPa 0,0 l/m 20,9 km/h (4 Bft) SW 225 0,000 mm 13,6 C 12,0 C 24,1 km/h (4 Bft)
19.08.2019 07:15 16,9 C 81 % 1016,3 hPa 0,0 l/m 19,3 km/h (3 Bft) SW 225 0,000 mm 13,6 C 12,4 C 24,1 km/h (4 Bft)
19.08.2019 07:14 16,9 C 80 % 1016,4 hPa 0,0 l/m 19,3 km/h (3 Bft) SW 225 0,000 mm 13,4 C 12,4 C 22,5 km/h (4 Bft)
19.08.2019 07:13 16,9 C 80 % 1016,3 hPa 0,0 l/m 17,7 km/h (3 Bft) SW 225 0,000 mm 13,4 C 12,8 C 24,1 km/h (4 Bft)
19.08.2019 07:12 16,9 C 80 % 1016,4 hPa 0,0 l/m 24,1 km/h (4 Bft) SW 225 0,000 mm 13,4 C 11,3 C 27,4 km/h (4 Bft)
19.08.2019 07:11 16,9 C 80 % 1016,4 hPa 0,0 l/m 19,3 km/h (3 Bft) SW 225 0,000 mm 13,4 C 12,4 C 24,1 km/h (4 Bft)
19.08.2019 07:10 16,9 C 80 % 1016,3 hPa 0,0 l/m 20,9 km/h (4 Bft) SW 225 0,000 mm 13,4 C 12,0 C 24,1 km/h (4 Bft)
19.08.2019 07:09 16,9 C 80 % 1016,4 hPa 0,0 l/m 19,3 km/h (3 Bft) SW 225 0,000 mm 13,4 C 12,4 C 22,5 km/h (4 Bft)
19.08.2019 07:08 16,9 C 80 % 1016,3 hPa 0,0 l/m 20,9 km/h (4 Bft) SW 225 0,000 mm 13,4 C 12,0 C 25,7 km/h (4 Bft)
19.08.2019 07:07 16,9 C 80 % 1016,4 hPa 0,0 l/m 17,7 km/h (3 Bft) SW 225 0,000 mm 13,4 C 12,8 C 24,1 km/h (4 Bft)
19.08.2019 07:06 16,9 C 80 % 1016,3 hPa 0,0 l/m 17,7 km/h (3 Bft) W-SW 247 0,000 mm 13,4 C 12,8 C 20,9 km/h (4 Bft)
19.08.2019 07:05 16,9 C 80 % 1016,3 hPa 0,0 l/m 16,1 km/h (3 Bft) W-SW 247 0,000 mm 13,4 C 13,2 C 20,9 km/h (4 Bft)
19.08.2019 07:04 16,9 C 80 % 1016,3 hPa 0,0 l/m 17,7 km/h (3 Bft) W-SW 247 0,000 mm 13,4 C 12,8 C 22,5 km/h (4 Bft)
19.08.2019 07:03 17,0 C 80 % 1016,3 hPa 0,0 l/m 19,3 km/h (3 Bft) W-SW 247 0,000 mm 13,5 C 12,5 C 22,5 km/h (4 Bft)
19.08.2019 07:02 17,0 C 80 % 1016,3 hPa 0,0 l/m 19,3 km/h (3 Bft) SW 225 0,000 mm 13,5 C 12,5 C 24,1 km/h (4 Bft)
19.08.2019 07:01 17,0 C 80 % 1016,4 hPa 0,0 l/m 14,5 km/h (3 Bft) W-SW 247 0,000 mm 13,5 C 13,8 C 20,9 km/h (4 Bft)
19.08.2019 07:00 17,0 C 80 % 1016,4 hPa 0,0 l/m 17,7 km/h (3 Bft) W-SW 247 0,000 mm 13,5 C 12,9 C 20,9 km/h (4 Bft)
19.08.2019 06:59 17,0 C 80 % 1016,4 hPa 0,0 l/m 16,1 km/h (3 Bft) W-SW 247 0,000 mm 13,5 C 13,3 C 19,3 km/h (3 Bft)
19.08.2019 06:58 17,1 C 80 % 1016,4 hPa 0,0 l/m 17,7 km/h (3 Bft) SW 225 0,000 mm 13,6 C 13,0 C 20,9 km/h (4 Bft)
19.08.2019 06:57 17,1 C 79 % 1016,4 hPa 0,0 l/m 19,3 km/h (3 Bft) SW 225 0,000 mm 13,4 C 12,6 C 22,5 km/h (4 Bft)
19.08.2019 06:56 17,1 C 79 % 1016,4 hPa 0,0 l/m 19,3 km/h (3 Bft) SW 225 0,000 mm 13,4 C 12,6 C 24,1 km/h (4 Bft)
19.08.2019 06:55 17,1 C 79 % 1016,5 hPa 0,0 l/m 17,7 km/h (3 Bft) SW 225 0,000 mm 13,4 C 13,0 C 20,9 km/h (4 Bft)
19.08.2019 06:54 17,1 C 79 % 1016,4 hPa 0,0 l/m 22,5 km/h (4 Bft) SW 225 0,000 mm 13,4 C 11,9 C 29,0 km/h (5 Bft)
19.08.2019 06:53 17,1 C 79 % 1016,4 hPa 0,0 l/m 20,9 km/h (4 Bft) SW 225 0,000 mm 13,4 C 12,3 C 25,7 km/h (4 Bft)
19.08.2019 06:52 17,1 C 79 % 1016,5 hPa 0,0 l/m 24,1 km/h (4 Bft) SW 225 0,000 mm 13,4 C 11,6 C 29,0 km/h (5 Bft)
19.08.2019 06:51 17,1 C 79 % 1016,5 hPa 0,0 l/m 20,9 km/h (4 Bft) SW 225 0,000 mm 13,4 C 12,3 C 29,0 km/h (5 Bft)
19.08.2019 06:50 17,1 C 79 % 1016,4 hPa 0,0 l/m 19,3 km/h (3 Bft) SW 225 0,000 mm 13,4 C 12,6 C 24,1 km/h (4 Bft)
19.08.2019 06:49 17,1 C 79 % 1016,3 hPa 0,0 l/m 24,1 km/h (4 Bft) SW 225 0,000 mm 13,4 C 11,6 C 29,0 km/h (5 Bft)
19.08.2019 06:48 17,1 C 79 % 1016,3 hPa 0,0 l/m 19,3 km/h (3 Bft) SW 225 0,000 mm 13,4 C 12,6 C 27,4 km/h (4 Bft)
19.08.2019 06:47 17,2 C 79 % 1016,1 hPa 0,0 l/m 22,5 km/h (4 Bft) W-SW 247 0,000 mm 13,5 C 12,1 C 25,7 km/h (4 Bft)
19.08.2019 06:46 17,2 C 79 % 1016,2 hPa 0,0 l/m 24,1 km/h (4 Bft) W-SW 247 0,000 mm 13,5 C 11,8 C 32,2 km/h (5 Bft)
19.08.2019 06:45 17,2 C 79 % 1016,0 hPa 0,0 l/m 20,9 km/h (4 Bft) SW 225 0,000 mm 13,5 C 12,4 C 25,7 km/h (4 Bft)
19.08.2019 06:44 17,2 C 79 % 1016,0 hPa 0,0 l/m 20,9 km/h (4 Bft) W-SW 247 0,000 mm 13,5 C 12,4 C 27,4 km/h (4 Bft)
19.08.2019 06:43 17,2 C 78 % 1016,0 hPa 0,0 l/m 20,9 km/h (4 Bft) SW 225 0,000 mm 13,3 C 12,4 C 27,4 km/h (4 Bft)
19.08.2019 06:42 17,2 C 79 % 1016,1 hPa 0,0 l/m 24,1 km/h (4 Bft) W-SW 247 0,000 mm 13,5 C 11,8 C 30,6 km/h (5 Bft)
19.08.2019 06:41 17,3 C 78 % 1016,0 hPa 0,0 l/m 25,7 km/h (4 Bft) W-SW 247 0,000 mm 13,4 C 11,6 C 32,2 km/h (5 Bft)
19.08.2019 06:40 17,3 C 78 % 1016,1 hPa 0,0 l/m 25,7 km/h (4 Bft) SW 225 0,000 mm 13,4 C 11,6 C 32,2 km/h (5 Bft)
19.08.2019 06:39 17,3 C 78 % 1016,0 hPa 0,0 l/m 20,9 km/h (4 Bft) W-SW 247 0,000 mm 13,4 C 12,5 C 27,4 km/h (4 Bft)
19.08.2019 06:38 17,3 C 78 % 1016,0 hPa 0,0 l/m 25,7 km/h (4 Bft) W-SW 247 0,000 mm 13,4 C 11,6 C 33,8 km/h (5 Bft)
19.08.2019 06:37 17,3 C 79 % 1015,9 hPa 0,0 l/m 24,1 km/h (4 Bft) SW 225 0,000 mm 13,6 C 11,9 C 29,0 km/h (5 Bft)
19.08.2019 06:36 17,3 C 79 % 1016,0 hPa 0,0 l/m 20,9 km/h (4 Bft) SW 225 0,000 mm 13,6 C 12,5 C 25,7 km/h (4 Bft)
19.08.2019 06:35 17,3 C 79 % 1016,0 hPa 0,0 l/m 24,1 km/h (4 Bft) SW 225 0,000 mm 13,6 C 11,9 C 33,8 km/h (5 Bft)
19.08.2019 06:34 17,3 C 78 % 1015,9 hPa 0,0 l/m 27,4 km/h (4 Bft) SW 225 0,000 mm 13,4 C 11,3 C 35,4 km/h (5 Bft)
19.08.2019 06:33 17,3 C 79 % 1016,1 hPa 0,0 l/m 29,0 km/h (5 Bft) SW 225 0,000 mm 13,6 C 11,1 C 37,0 km/h (5 Bft)
19.08.2019 06:32 17,3 C 79 % 1016,1 hPa 0,0 l/m 27,4 km/h (4 Bft) SW 225 0,000 mm 13,6 C 11,3 C 32,2 km/h (5 Bft)
19.08.2019 06:31 17,4 C 79 % 1016,1 hPa 0,0 l/m 25,7 km/h (4 Bft) W-SW 247 0,000 mm 13,7 C 11,7 C 32,2 km/h (5 Bft)
19.08.2019 06:30 17,4 C 79 % 1016,1 hPa 0,0 l/m 22,5 km/h (4 Bft) SW 225 0,000 mm 13,7 C 12,3 C 27,4 km/h (4 Bft)
19.08.2019 06:29 17,4 C 79 % 1016,1 hPa 0,0 l/m 25,7 km/h (4 Bft) SW 225 0,000 mm 13,7 C 11,7 C 30,6 km/h (5 Bft)
19.08.2019 06:28 17,4 C 79 % 1016,1 hPa 0,0 l/m 30,6 km/h (5 Bft) SW 225 0,000 mm 13,7 C 11,0 C 37,0 km/h (5 Bft)
19.08.2019 06:27 17,5 C 79 % 1016,1 hPa 0,0 l/m 30,6 km/h (5 Bft) SW 225 0,000 mm 13,8 C 11,1 C 37,0 km/h (5 Bft)
19.08.2019 06:26 17,5 C 78 % 1016,0 hPa 0,0 l/m 33,8 km/h (5 Bft) SW 225 0,000 mm 13,6 C 10,7 C 41,8 km/h (6 Bft)
19.08.2019 06:25 17,5 C 78 % 1016,0 hPa 0,0 l/m 35,4 km/h (5 Bft) SW 225 0,000 mm 13,6 C 10,5 C 40,2 km/h (6 Bft)
19.08.2019 06:24 17,5 C 78 % 1016,0 hPa 0,0 l/m 33,8 km/h (5 Bft) SW 225 0,000 mm 13,6 C 10,7 C 43,5 km/h (6 Bft)
19.08.2019 06:23 17,6 C 78 % 1015,8 hPa 0,0 l/m 29,0 km/h (5 Bft) SW 225 0,000 mm 13,7 C 11,5 C 37,0 km/h (5 Bft)
19.08.2019 06:22 17,6 C 78 % 1015,9 hPa 0,0 l/m 29,0 km/h (5 Bft) SW 225 0,000 mm 13,7 C 11,5 C 35,4 km/h (5 Bft)
19.08.2019 06:21 17,6 C 78 % 1015,9 hPa 0,0 l/m 30,6 km/h (5 Bft) SW 225 0,000 mm 13,7 C 11,3 C 38,6 km/h (5 Bft)
19.08.2019 06:20 17,6 C 78 % 1015,9 hPa 0,0 l/m 32,2 km/h (5 Bft) W-SW 247 0,000 mm 13,7 C 11,0 C 43,5 km/h (6 Bft)
19.08.2019 06:19 17,7 C 78 % 1015,9 hPa 0,0 l/m 32,2 km/h (5 Bft) W-SW 247 0,000 mm 13,8 C 11,2 C 40,2 km/h (6 Bft)
19.08.2019 06:18 17,7 C 78 % 1016,0 hPa 0,0 l/m 29,0 km/h (5 Bft) SW 225 0,000 mm 13,8 C 11,6 C 37,0 km/h (5 Bft)
19.08.2019 06:17 17,7 C 78 % 1015,9 hPa 0,0 l/m 24,1 km/h (4 Bft) SW 225 0,000 mm 13,8 C 12,4 C 29,0 km/h (5 Bft)
19.08.2019 06:16 17,8 C 78 % 1016,0 hPa 0,0 l/m 29,0 km/h (5 Bft) SW 225 0,000 mm 13,9 C 11,8 C 37,0 km/h (5 Bft)
19.08.2019 06:15 17,8 C 78 % 1016,0 hPa 0,0 l/m 27,4 km/h (4 Bft) SW 225 0,000 mm 13,9 C 12,0 C 32,2 km/h (5 Bft)
19.08.2019 06:14 17,8 C 78 % 1016,0 hPa 0,0 l/m 22,5 km/h (4 Bft) SW 225 0,000 mm 13,9 C 12,9 C 30,6 km/h (5 Bft)
19.08.2019 06:13 17,8 C 77 % 1015,9 hPa 0,0 l/m 24,1 km/h (4 Bft) W-SW 247 0,000 mm 13,7 C 12,6 C 29,0 km/h (5 Bft)
19.08.2019 06:12 17,9 C 77 % 1016,1 hPa 0,0 l/m 27,4 km/h (4 Bft) W-SW 247 0,000 mm 13,8 C 12,1 C 32,2 km/h (5 Bft)
19.08.2019 06:11 17,9 C 77 % 1015,9 hPa 0,0 l/m 27,4 km/h (4 Bft) W-SW 247 0,000 mm 13,8 C 12,1 C 33,8 km/h (5 Bft)
19.08.2019 06:10 17,9 C 77 % 1015,9 hPa 0,0 l/m 25,7 km/h (4 Bft) SW 225 0,000 mm 13,8 C 12,4 C 35,4 km/h (5 Bft)
19.08.2019 06:09 18,0 C 76 % 1015,9 hPa 0,0 l/m 25,7 km/h (4 Bft) SW 225 0,000 mm 13,7 C 12,6 C 33,8 km/h (5 Bft)
19.08.2019 06:08 18,1 C 76 % 1015,8 hPa 0,0 l/m 29,0 km/h (5 Bft) W-SW 247 0,000 mm 13,8 C 12,2 C 37,0 km/h (5 Bft)
19.08.2019 06:07 18,1 C 76 % 1015,9 hPa 0,0 l/m 22,5 km/h (4 Bft) SW 225 0,000 mm 13,8 C 13,3 C 32,2 km/h (5 Bft)
19.08.2019 06:06 18,1 C 76 % 1015,8 hPa 0,0 l/m 27,4 km/h (4 Bft) SW 225 0,000 mm 13,8 C 12,4 C 37,0 km/h (5 Bft)
19.08.2019 06:05 18,2 C 76 % 1015,8 hPa 0,0 l/m 24,1 km/h (4 Bft) W-SW 247 0,000 mm 13,9 C 13,1 C 35,4 km/h (5 Bft)
19.08.2019 06:04 18,2 C 75 % 1015,8 hPa 0,0 l/m 30,6 km/h (5 Bft) W-SW 247 0,000 mm 13,7 C 12,1 C 38,6 km/h (5 Bft)
19.08.2019 06:03 18,3 C 74 % 1015,6 hPa 0,0 l/m 30,6 km/h (5 Bft) W-SW 247 0,000 mm 13,6 C 12,2 C 41,8 km/h (6 Bft)
19.08.2019 06:02 18,3 C 74 % 1015,7 hPa 0,0 l/m 30,6 km/h (5 Bft) W-SW 247 0,000 mm 13,6 C 12,2 C 41,8 km/h (6 Bft)
19.08.2019 06:01 18,4 C 74 % 1015,7 hPa 0,0 l/m 29,0 km/h (5 Bft) W-SW 247 0,000 mm 13,7 C 12,6 C 38,6 km/h (5 Bft)
19.08.2019 06:00 18,4 C 74 % 1015,7 hPa 0,0 l/m 29,0 km/h (5 Bft) W-SW 247 0,000 mm 13,7 C 12,6 C 37,0 km/h (5 Bft)
19.08.2019 05:59 18,4 C 73 % 1015,8 hPa 0,0 l/m 25,7 km/h (4 Bft) W-SW 247 0,000 mm 13,5 C 13,1 C 35,4 km/h (5 Bft)
19.08.2019 05:58 18,5 C 73 % 1015,6 hPa 0,0 l/m 29,0 km/h (5 Bft) SW 225 0,000 mm 13,6 C 12,7 C 32,2 km/h (5 Bft)
19.08.2019 05:57 18,6 C 72 % 1015,6 hPa 0,0 l/m 27,4 km/h (4 Bft) W-SW 247 0,000 mm 13,4 C 13,1 C 32,2 km/h (5 Bft)
19.08.2019 05:56 18,6 C 72 % 1015,6 hPa 0,0 l/m 33,8 km/h (5 Bft) W-SW 247 0,000 mm 13,4 C 12,3 C 41,8 km/h (6 Bft)
19.08.2019 05:55 18,6 C 72 % 1015,8 hPa 0,0 l/m 29,0 km/h (5 Bft) W-SW 247 0,000 mm 13,4 C 12,9 C 38,6 km/h (5 Bft)
19.08.2019 05:54 18,7 C 72 % 1015,7 hPa 0,0 l/m 25,7 km/h (4 Bft) W-SW 247 0,000 mm 13,5 C 13,5 C 32,2 km/h (5 Bft)
19.08.2019 05:53 18,7 C 72 % 1015,7 hPa 0,0 l/m 22,5 km/h (4 Bft) W-SW 247 0,000 mm 13,5 C 14,0 C 29,0 km/h (5 Bft)
19.08.2019 05:52 18,7 C 71 % 1015,7 hPa 0,0 l/m 24,1 km/h (4 Bft) W-SW 247 0,000 mm 13,3 C 13,8 C 30,6 km/h (5 Bft)
19.08.2019 05:51 18,8 C 71 % 1015,7 hPa 0,0 l/m 27,4 km/h (4 Bft) W-SW 247 0,000 mm 13,4 C 13,4 C 41,8 km/h (6 Bft)
19.08.2019 05:50 18,8 C 71 % 1015,7 hPa 0,0 l/m 19,3 km/h (3 Bft) W-SW 247 0,000 mm 13,4 C 14,8 C 27,4 km/h (4 Bft)
19.08.2019 05:49 18,8 C 71 % 1015,7 hPa 0,0 l/m 14,5 km/h (3 Bft) W 270 0,000 mm 13,4 C 15,9 C 25,7 km/h (4 Bft)
19.08.2019 05:48 18,8 C 71 % 1015,7 hPa 0,0 l/m 14,5 km/h (3 Bft) W 270 0,000 mm 13,4 C 15,9 C 19,3 km/h (3 Bft)
19.08.2019 05:47 18,8 C 71 % 1015,7 hPa 0,0 l/m 19,3 km/h (3 Bft) W-SW 247 0,000 mm 13,4 C 14,8 C 22,5 km/h (4 Bft)
19.08.2019 05:46 18,8 C 71 % 1015,8 hPa 0,0 l/m 19,3 km/h (3 Bft) W-SW 247 0,000 mm 13,4 C 14,8 C 24,1 km/h (4 Bft)
19.08.2019 05:45 18,9 C 71 % 1015,8 hPa 0,0 l/m 14,5 km/h (3 Bft) W-SW 247 0,000 mm 13,5 C 16,0 C 19,3 km/h (3 Bft)
19.08.2019 05:44 18,9 C 70 % 1015,8 hPa 0,0 l/m 17,7 km/h (3 Bft) W 270 0,000 mm 13,3 C 15,3 C 27,4 km/h (4 Bft)
19.08.2019 05:43 18,9 C 71 % 1015,8 hPa 0,0 l/m 19,3 km/h (3 Bft) W-SW 247 0,000 mm 13,5 C 14,9 C 24,1 km/h (4 Bft)
19.08.2019 05:42 18,9 C 71 % 1015,9 hPa 0,0 l/m 16,1 km/h (3 Bft) W 270 0,000 mm 13,5 C 15,6 C 24,1 km/h (4 Bft)
19.08.2019 05:41 18,9 C 71 % 1015,8 hPa 0,0 l/m 12,9 km/h (3 Bft) N-NO 22 0,000 mm 13,5 C 16,5 C 29,0 km/h (5 Bft)
19.08.2019 05:40 18,9 C 71 % 1015,8 hPa 0,0 l/m 19,3 km/h (3 Bft) W-SW 247 0,000 mm 13,5 C 14,9 C 30,6 km/h (5 Bft)
19.08.2019 05:39 18,9 C 71 % 1015,9 hPa 0,0 l/m 17,7 km/h (3 Bft) W 270 0,000 mm 13,5 C 15,3 C 29,0 km/h (5 Bft)
19.08.2019 05:38 18,9 C 71 % 1015,9 hPa 0,0 l/m 20,9 km/h (4 Bft) W 270 0,000 mm 13,5 C 14,6 C 30,6 km/h (5 Bft)
19.08.2019 05:37 18,9 C 72 % 1015,9 hPa 0,0 l/m 20,9 km/h (4 Bft) W-SW 247 0,000 mm 13,7 C 14,6 C 27,4 km/h (4 Bft)
19.08.2019 05:36 18,9 C 72 % 1015,9 hPa 0,0 l/m 22,5 km/h (4 Bft) W-SW 247 0,000 mm 13,7 C 14,3 C 35,4 km/h (5 Bft)
19.08.2019 05:35 18,9 C 72 % 1015,9 hPa 0,0 l/m 25,7 km/h (4 Bft) W 270 0,000 mm 13,7 C 13,8 C 41,8 km/h (6 Bft)
19.08.2019 05:34 18,8 C 73 % 1015,9 hPa 0,0 l/m 19,3 km/h (3 Bft) W 270 0,000 mm 13,9 C 14,8 C 33,8 km/h (5 Bft)
19.08.2019 05:33 18,8 C 73 % 1015,8 hPa 0,0 l/m 14,5 km/h (3 Bft) W 270 0,000 mm 13,9 C 15,9 C 19,3 km/h (3 Bft)
19.08.2019 05:32 18,8 C 73 % 1015,9 hPa 0,0 l/m 16,1 km/h (3 Bft) W-NW 292 0,000 mm 13,9 C 15,5 C 27,4 km/h (4 Bft)
19.08.2019 05:31 18,9 C 74 % 1015,9 hPa 0,0 l/m 12,9 km/h (3 Bft) W-SW 247 0,000 mm 14,2 C 16,5 C 27,4 km/h (4 Bft)
19.08.2019 05:30 18,8 C 74 % 1015,6 hPa 0,0 l/m 24,1 km/h (4 Bft) W 270 0,000 mm 14,1 C 13,9 C 37,0 km/h (5 Bft)
19.08.2019 05:29 18,8 C 73 % 1015,7 hPa 0,0 l/m 32,2 km/h (5 Bft) W-SW 247 0,000 mm 13,9 C 12,8 C 46,7 km/h (6 Bft)
19.08.2019 05:28 18,8 C 75 % 1015,7 hPa 0,0 l/m 24,1 km/h (4 Bft) W 270 0,000 mm 14,3 C 13,9 C 38,6 km/h (5 Bft)
19.08.2019 05:27 18,8 C 75 % 1015,5 hPa 0,0 l/m 33,8 km/h (5 Bft) W-SW 247 0,000 mm 14,3 C 12,6 C 46,7 km/h (6 Bft)
19.08.2019 05:26 18,8 C 76 % 1015,7 hPa 0,0 l/m 20,9 km/h (4 Bft) W-SW 247 0,000 mm 14,5 C 14,5 C 33,8 km/h (5 Bft)
19.08.2019 05:25 18,8 C 76 % 1015,6 hPa 0,0 l/m 22,5 km/h (4 Bft) W-SW 247 0,000 mm 14,5 C 14,2 C 35,4 km/h (5 Bft)
19.08.2019 05:24 18,8 C 76 % 1015,6 hPa 0,0 l/m 30,6 km/h (5 Bft) W-SW 247 0,000 mm 14,5 C 13,0 C 40,2 km/h (6 Bft)
19.08.2019 05:23 18,8 C 77 % 1015,6 hPa 0,0 l/m 24,1 km/h (4 Bft) W-SW 247 0,000 mm 14,7 C 13,9 C 32,2 km/h (5 Bft)
19.08.2019 05:22 18,8 C 77 % 1015,6 hPa 0,0 l/m 27,4 km/h (4 Bft) W-SW 247 0,000 mm 14,7 C 13,4 C 33,8 km/h (5 Bft)
19.08.2019 05:21 18,8 C 77 % 1015,6 hPa 0,0 l/m 30,6 km/h (5 Bft) W-SW 247 0,000 mm 14,7 C 13,0 C 40,2 km/h (6 Bft)
19.08.2019 05:20 18,8 C 77 % 1015,3 hPa 0,0 l/m 32,2 km/h (5 Bft) W-SW 247 0,000 mm 14,7 C 12,8 C 46,7 km/h (6 Bft)
19.08.2019 05:19 18,9 C 77 % 1015,6 hPa 0,0 l/m 30,6 km/h (5 Bft) W-SW 247 0,000 mm 14,8 C 13,1 C 46,7 km/h (6 Bft)
19.08.2019 05:18 18,9 C 78 % 1015,4 hPa 0,0 l/m 25,7 km/h (4 Bft) SW 225 0,000 mm 15,0 C 13,8 C 30,6 km/h (5 Bft)
19.08.2019 05:17 19,0 C 77 % 1015,4 hPa 0,0 l/m 30,6 km/h (5 Bft) W-SW 247 0,000 mm 14,9 C 13,2 C 41,8 km/h (6 Bft)
19.08.2019 05:16 19,0 C 77 % 1015,4 hPa 0,0 l/m 24,1 km/h (4 Bft) W-SW 247 0,000 mm 14,9 C 14,2 C 30,6 km/h (5 Bft)
19.08.2019 05:15 19,1 C 77 % 1015,1 hPa 0,0 l/m 33,8 km/h (5 Bft) W-SW 247 0,000 mm 15,0 C 13,0 C 40,2 km/h (6 Bft)
19.08.2019 05:14 19,1 C 77 % 1015,2 hPa 0,0 l/m 33,8 km/h (5 Bft) W-SW 247 0,000 mm 15,0 C 13,0 C 46,7 km/h (6 Bft)
19.08.2019 05:13 19,1 C 77 % 1015,1 hPa 0,0 l/m 38,6 km/h (5 Bft) W-SW 247 0,000 mm 15,0 C 12,5 C 49,9 km/h (6 Bft)
19.08.2019 05:12 19,1 C 77 % 1015,1 hPa 0,0 l/m 29,0 km/h (5 Bft) W-SW 247 0,000 mm 15,0 C 13,6 C 43,5 km/h (6 Bft)
19.08.2019 05:11 19,1 C 77 % 1015,0 hPa 0,0 l/m 29,0 km/h (5 Bft) W-SW 247 0,000 mm 15,0 C 13,6 C 37,0 km/h (5 Bft)
19.08.2019 05:10 19,1 C 77 % 1015,1 hPa 0,0 l/m 27,4 km/h (4 Bft) W-SW 247 0,000 mm 15,0 C 13,8 C 40,2 km/h (6 Bft)
19.08.2019 05:09 19,1 C 77 % 1014,8 hPa 0,0 l/m 29,0 km/h (5 Bft) W-SW 247 0,000 mm 15,0 C 13,6 C 46,7 km/h (6 Bft)
19.08.2019 05:08 19,1 C 77 % 1014,9 hPa 0,0 l/m 29,0 km/h (5 Bft) W-SW 247 0,000 mm 15,0 C 13,6 C 38,6 km/h (5 Bft)
19.08.2019 05:07 19,1 C 77 % 1014,8 hPa 0,0 l/m 30,6 km/h (5 Bft) W-SW 247 0,000 mm 15,0 C 13,4 C 41,8 km/h (6 Bft)
19.08.2019 05:06 19,1 C 77 % 1014,7 hPa 0,0 l/m 30,6 km/h (5 Bft) W-SW 247 0,000 mm 15,0 C 13,4 C 38,6 km/h (5 Bft)
19.08.2019 05:05 19,2 C 77 % 1014,9 hPa 0,0 l/m 30,6 km/h (5 Bft) W-SW 247 0,000 mm 15,1 C 13,5 C 38,6 km/h (5 Bft)
19.08.2019 05:04 19,2 C 77 % 1014,7 hPa 0,0 l/m 33,8 km/h (5 Bft) W-SW 247 0,000 mm 15,1 C 13,1 C 41,8 km/h (6 Bft)
19.08.2019 05:03 19,2 C 77 % 1014,8 hPa 0,0 l/m 30,6 km/h (5 Bft) W-SW 247 0,000 mm 15,1 C 13,5 C 45,1 km/h (6 Bft)
19.08.2019 05:02 19,2 C 77 % 1014,7 hPa 0,0 l/m 33,8 km/h (5 Bft) W-SW 247 0,000 mm 15,1 C 13,1 C 43,5 km/h (6 Bft)
19.08.2019 05:01 19,2 C 77 % 1014,8 hPa 0,0 l/m 30,6 km/h (5 Bft) W-SW 247 0,000 mm 15,1 C 13,5 C 45,1 km/h (6 Bft)
19.08.2019 05:00 19,2 C 77 % 1014,6 hPa 0,0 l/m 37,0 km/h (5 Bft) W-SW 247 0,000 mm 15,1 C 12,8 C 62,8 km/h (8 Bft)
19.08.2019 04:59 19,2 C 77 % 1014,6 hPa 0,0 l/m 40,2 km/h (6 Bft) W-SW 247 0,000 mm 15,1 C 12,5 C 64,4 km/h (8 Bft)
19.08.2019 04:58 19,2 C 77 % 1014,6 hPa 0,0 l/m 29,0 km/h (5 Bft) W-SW 247 0,000 mm 15,1 C 13,7 C 43,5 km/h (6 Bft)
19.08.2019 04:57 19,2 C 78 % 1014,4 hPa 0,0 l/m 41,8 km/h (6 Bft) W-SW 247 0,000 mm 15,3 C 12,4 C 51,5 km/h (7 Bft)
19.08.2019 04:56 19,1 C 78 % 1014,6 hPa 0,0 l/m 35,4 km/h (5 Bft) W-SW 247 0,000 mm 15,2 C 12,8 C 49,9 km/h (6 Bft)
19.08.2019 04:55 19,2 C 78 % 1014,6 hPa 0,0 l/m 25,7 km/h (4 Bft) W-SW 247 0,000 mm 15,3 C 14,2 C 32,2 km/h (5 Bft)
19.08.2019 04:54 19,2 C 78 % 1014,5 hPa 0,0 l/m 38,6 km/h (5 Bft) W-SW 247 0,000 mm 15,3 C 12,7 C 45,1 km/h (6 Bft)
19.08.2019 04:53 19,2 C 78 % 1014,4 hPa 0,0 l/m 32,2 km/h (5 Bft) W-SW 247 0,000 mm 15,3 C 13,3 C 38,6 km/h (5 Bft)
19.08.2019 04:52 19,2 C 77 % 1014,3 hPa 0,0 l/m 29,0 km/h (5 Bft) W-SW 247 0,000 mm 15,1 C 13,7 C 38,6 km/h (5 Bft)
19.08.2019 04:51 19,3 C 77 % 1014,3 hPa 0,0 l/m 35,4 km/h (5 Bft) W-SW 247 0,000 mm 15,2 C 13,1 C 40,2 km/h (6 Bft)
19.08.2019 04:50 19,3 C 77 % 1014,2 hPa 0,0 l/m 40,2 km/h (6 Bft) W-SW 247 0,000 mm 15,2 C 12,7 C 49,9 km/h (6 Bft)
19.08.2019 04:49 19,3 C 77 % 1014,4 hPa 0,0 l/m 38,6 km/h (5 Bft) W-SW 247 0,000 mm 15,2 C 12,8 C 53,1 km/h (7 Bft)
19.08.2019 04:48 19,3 C 77 % 1014,3 hPa 0,0 l/m 30,6 km/h (5 Bft) W-SW 247 0,000 mm 15,2 C 13,7 C 38,6 km/h (5 Bft)
19.08.2019 04:47 19,3 C 77 % 1014,1 hPa 0,0 l/m 41,8 km/h (6 Bft) W-SW 247 0,000 mm 15,2 C 12,5 C 48,3 km/h (6 Bft)
19.08.2019 04:46 19,3 C 77 % 1014,3 hPa 0,0 l/m 33,8 km/h (5 Bft) W-SW 247 0,000 mm 15,2 C 13,3 C 40,2 km/h (6 Bft)
19.08.2019 04:45 19,4 C 76 % 1014,2 hPa 0,0 l/m 35,4 km/h (5 Bft) W-SW 247 0,000 mm 15,1 C 13,3 C 45,1 km/h (6 Bft)
19.08.2019 04:44 19,4 C 76 % 1013,9 hPa 0,0 l/m 38,6 km/h (5 Bft) W-SW 247 0,000 mm 15,1 C 13,0 C 49,9 km/h (6 Bft)
19.08.2019 04:43 19,4 C 76 % 1014,2 hPa 0,0 l/m 43,5 km/h (6 Bft) W-SW 247 0,000 mm 15,1 C 12,6 C 56,3 km/h (7 Bft)
19.08.2019 04:42 19,4 C 76 % 1014,0 hPa 0,0 l/m 45,1 km/h (6 Bft) W-SW 247 0,000 mm 15,1 C 12,4 C 57,9 km/h (7 Bft)
19.08.2019 04:41 19,4 C 77 % 1013,9 hPa 0,0 l/m 40,2 km/h (6 Bft) W-SW 247 0,000 mm 15,3 C 12,8 C 49,9 km/h (6 Bft)
19.08.2019 04:40 19,4 C 77 % 1013,9 hPa 0,0 l/m 40,2 km/h (6 Bft) W-SW 247 0,000 mm 15,3 C 12,8 C 46,7 km/h (6 Bft)
19.08.2019 04:39 19,4 C 77 % 1014,2 hPa 0,0 l/m 37,0 km/h (5 Bft) SW 225 0,000 mm 15,3 C 13,1 C 54,7 km/h (7 Bft)
19.08.2019 04:38 19,4 C 77 % 1014,1 hPa 0,0 l/m 43,5 km/h (6 Bft) W-SW 247 0,000 mm 15,3 C 12,6 C 54,7 km/h (7 Bft)
19.08.2019 04:37 19,3 C 77 % 1014,0 hPa 0,0 l/m 38,6 km/h (5 Bft) SW 225 0,000 mm 15,2 C 12,8 C 51,5 km/h (7 Bft)
19.08.2019 04:36 19,3 C 77 % 1014,1 hPa 0,0 l/m 38,6 km/h (5 Bft) SW 225 0,000 mm 15,2 C 12,8 C 51,5 km/h (7 Bft)
19.08.2019 04:35 19,3 C 77 % 1013,9 hPa 0,0 l/m 33,8 km/h (5 Bft) SW 225 0,000 mm 15,2 C 13,3 C 43,5 km/h (6 Bft)
19.08.2019 04:34 19,3 C 77 % 1013,9 hPa 0,0 l/m 38,6 km/h (5 Bft) SW 225 0,000 mm 15,2 C 12,8 C 46,7 km/h (6 Bft)
19.08.2019 04:33 19,3 C 77 % 1013,6 hPa 0,0 l/m 37,0 km/h (5 Bft) SW 225 0,000 mm 15,2 C 13,0 C 49,9 km/h (6 Bft)
19.08.2019 04:32 19,3 C 77 % 1013,7 hPa 0,0 l/m 41,8 km/h (6 Bft) W-SW 247 0,000 mm 15,2 C 12,5 C 49,9 km/h (6 Bft)
19.08.2019 04:31 19,2 C 77 % 1013,6 hPa 0,0 l/m 35,4 km/h (5 Bft) SW 225 0,000 mm 15,1 C 13,0 C 41,8 km/h (6 Bft)
19.08.2019 04:30 19,2 C 77 % 1013,7 hPa 0,0 l/m 40,2 km/h (6 Bft) SW 225 0,000 mm 15,1 C 12,5 C 45,1 km/h (6 Bft)
19.08.2019 04:29 19,2 C 77 % 1013,7 hPa 0,0 l/m 32,2 km/h (5 Bft) SW 225 0,000 mm 15,1 C 13,3 C 43,5 km/h (6 Bft)
19.08.2019 04:28 19,2 C 77 % 1013,7 hPa 0,0 l/m 29,0 km/h (5 Bft) SW 225 0,000 mm 15,1 C 13,7 C 45,1 km/h (6 Bft)
19.08.2019 04:27 19,3 C 76 % 1013,7 hPa 0,0 l/m 35,4 km/h (5 Bft) SW 225 0,000 mm 15,0 C 13,1 C 46,7 km/h (6 Bft)
19.08.2019 04:26 19,4 C 76 % 1013,6 hPa 0,0 l/m 32,2 km/h (5 Bft) SW 225 0,000 mm 15,1 C 13,6 C 41,8 km/h (6 Bft)
19.08.2019 04:25 19,5 C 75 % 1013,6 hPa 0,0 l/m 33,8 km/h (5 Bft) SW 225 0,000 mm 14,9 C 13,6 C 41,8 km/h (6 Bft)
19.08.2019 04:24 19,6 C 74 % 1013,5 hPa 0,0 l/m 29,0 km/h (5 Bft) SW 225 0,000 mm 14,8 C 14,3 C 37,0 km/h (5 Bft)
19.08.2019 04:23 19,7 C 74 % 1013,5 hPa 0,0 l/m 25,7 km/h (4 Bft) SW 225 0,000 mm 14,9 C 14,9 C 35,4 km/h (5 Bft)
19.08.2019 04:22 19,8 C 73 % 1013,5 hPa 0,0 l/m 29,0 km/h (5 Bft) SW 225 0,000 mm 14,8 C 14,6 C 32,2 km/h (5 Bft)
19.08.2019 04:21 19,9 C 73 % 1013,5 hPa 0,0 l/m 27,4 km/h (4 Bft) SW 225 0,000 mm 14,9 C 14,9 C 30,6 km/h (5 Bft)
19.08.2019 04:20 20,1 C 72 % 1013,4 hPa 0,0 l/m 24,1 km/h (4 Bft) SW 225 0,000 mm 14,9 C 15,7 C 32,2 km/h (5 Bft)
19.08.2019 04:19 20,2 C 71 % 1013,3 hPa 0,0 l/m 27,4 km/h (4 Bft) SW 225 0,000 mm 14,8 C 15,3 C 32,2 km/h (5 Bft)
19.08.2019 04:18 20,3 C 70 % 1013,3 hPa 0,0 l/m 25,7 km/h (4 Bft) SW 225 0,000 mm 14,6 C 15,7 C 30,6 km/h (5 Bft)
19.08.2019 04:17 20,6 C 69 % 1013,3 hPa 0,0 l/m 24,1 km/h (4 Bft) SW 225 0,000 mm 14,7 C 16,3 C 30,6 km/h (5 Bft)
19.08.2019 04:16 20,9 C 67 % 1013,3 hPa 0,0 l/m 22,5 km/h (4 Bft) SW 225 0,000 mm 14,5 C 17,0 C 30,6 km/h (5 Bft)
19.08.2019 04:15 21,2 C 66 % 1013,3 hPa 0,0 l/m 24,1 km/h (4 Bft) SW 225 0,000 mm 14,6 C 17,1 C 27,4 km/h (4 Bft)
19.08.2019 04:14 21,4 C 65 % 1013,2 hPa 0,0 l/m 20,9 km/h (4 Bft) SW 225 0,000 mm 14,5 C 17,9 C 30,6 km/h (5 Bft)
19.08.2019 04:13 21,5 C 65 % 1013,1 hPa 0,0 l/m 24,1 km/h (4 Bft) W-SW 247 0,000 mm 14,6 C 17,5 C 30,6 km/h (5 Bft)
19.08.2019 04:12 21,6 C 64 % 1013,2 hPa 0,0 l/m 19,3 km/h (3 Bft) SW 225 0,000 mm 14,5 C 18,4 C 25,7 km/h (4 Bft)
19.08.2019 04:11 21,7 C 64 % 1013,1 hPa 0,0 l/m 20,9 km/h (4 Bft) W-SW 247 0,000 mm 14,6 C 18,3 C 25,7 km/h (4 Bft)
19.08.2019 04:10 21,7 C 64 % 1013,0 hPa 0,0 l/m 24,1 km/h (4 Bft) W-SW 247 0,000 mm 14,6 C 17,8 C 27,4 km/h (4 Bft)
19.08.2019 04:09 21,7 C 64 % 1013,0 hPa 0,0 l/m 22,5 km/h (4 Bft) W-SW 247 0,000 mm 14,6 C 18,0 C 29,0 km/h (5 Bft)
19.08.2019 04:08 21,7 C 64 % 1013,0 hPa 0,0 l/m 20,9 km/h (4 Bft) W-SW 247 0,000 mm 14,6 C 18,3 C 25,7 km/h (4 Bft)
19.08.2019 04:07 21,7 C 64 % 1013,0 hPa 0,0 l/m 19,3 km/h (3 Bft) W-SW 247 0,000 mm 14,6 C 18,5 C 29,0 km/h (5 Bft)
19.08.2019 04:06 21,6 C 64 % 1012,9 hPa 0,0 l/m 20,9 km/h (4 Bft) W-SW 247 0,000 mm 14,5 C 18,1 C 27,4 km/h (4 Bft)
19.08.2019 04:05 21,6 C 64 % 1012,9 hPa 0,0 l/m 22,5 km/h (4 Bft) W-SW 247 0,000 mm 14,5 C 17,9 C 29,0 km/h (5 Bft)
19.08.2019 04:04 21,6 C 64 % 1012,9 hPa 0,0 l/m 16,1 km/h (3 Bft) W-SW 247 0,000 mm 14,5 C 19,0 C 19,3 km/h (3 Bft)
19.08.2019 04:03 21,5 C 64 % 1012,8 hPa 0,0 l/m 17,7 km/h (3 Bft) W 270 0,000 mm 14,4 C 18,5 C 22,5 km/h (4 Bft)
19.08.2019 04:02 21,5 C 64 % 1012,7 hPa 0,0 l/m 19,3 km/h (3 Bft) W 270 0,000 mm 14,4 C 18,3 C 25,7 km/h (4 Bft)
19.08.2019 04:01 21,4 C 64 % 1012,8 hPa 0,0 l/m 17,7 km/h (3 Bft) W-SW 247 0,000 mm 14,3 C 18,4 C 24,1 km/h (4 Bft)
19.08.2019 04:00 21,4 C 65 % 1012,7 hPa 0,0 l/m 19,3 km/h (3 Bft) W-SW 247 0,000 mm 14,5 C 18,1 C 25,7 km/h (4 Bft)
19.08.2019 03:59 21,4 C 65 % 1012,8 hPa 0,0 l/m 17,7 km/h (3 Bft) W-SW 247 0,000 mm 14,5 C 18,4 C 20,9 km/h (4 Bft)
19.08.2019 03:58 21,4 C 65 % 1012,6 hPa 0,0 l/m 17,7 km/h (3 Bft) W-SW 247 0,000 mm 14,5 C 18,4 C 20,9 km/h (4 Bft)
19.08.2019 03:57 21,3 C 65 % 1012,7 hPa 0,0 l/m 17,7 km/h (3 Bft) W-SW 247 0,000 mm 14,4 C 18,3 C 22,5 km/h (4 Bft)
19.08.2019 03:56 21,3 C 65 % 1012,6 hPa 0,0 l/m 16,1 km/h (3 Bft) W-SW 247 0,000 mm 14,4 C 18,6 C 19,3 km/h (3 Bft)
19.08.2019 03:55 21,3 C 65 % 1012,5 hPa 0,0 l/m 17,7 km/h (3 Bft) W-SW 247 0,000 mm 14,4 C 18,3 C 24,1 km/h (4 Bft)
19.08.2019 03:54 21,2 C 65 % 1012,5 hPa 0,0 l/m 20,9 km/h (4 Bft) W-SW 247 0,000 mm 14,4 C 17,6 C 25,7 km/h (4 Bft)
19.08.2019 03:53 21,2 C 65 % 1012,4 hPa 0,0 l/m 19,3 km/h (3 Bft) W-SW 247 0,000 mm 14,4 C 17,9 C 25,7 km/h (4 Bft)
19.08.2019 03:52 21,2 C 65 % 1012,5 hPa 0,0 l/m 20,9 km/h (4 Bft) W-SW 247 0,000 mm 14,4 C 17,6 C 25,7 km/h (4 Bft)
19.08.2019 03:51 21,2 C 65 % 1012,5 hPa 0,0 l/m 20,9 km/h (4 Bft) W-SW 247 0,000 mm 14,4 C 17,6 C 22,5 km/h (4 Bft)
19.08.2019 03:50 21,2 C 65 % 1012,5 hPa 0,0 l/m 16,1 km/h (3 Bft) SW 225 0,000 mm 14,4 C 18,5 C 19,3 km/h (3 Bft)
19.08.2019 03:49 21,4 C 64 % 1012,5 hPa 0,0 l/m 19,3 km/h (3 Bft) SW 225 0,000 mm 14,3 C 18,1 C 24,1 km/h (4 Bft)
19.08.2019 03:48 21,7 C 62 % 1012,4 hPa 0,0 l/m 19,3 km/h (3 Bft) SW 225 0,000 mm 14,1 C 18,5 C 25,7 km/h (4 Bft)
19.08.2019 03:47 21,9 C 62 % 1012,4 hPa 0,0 l/m 19,3 km/h (3 Bft) SW 225 0,000 mm 14,3 C 18,8 C 24,1 km/h (4 Bft)
19.08.2019 03:46 22,3 C 61 % 1012,4 hPa 0,0 l/m 20,9 km/h (4 Bft) SW 225 0,000 mm 14,4 C 19,0 C 24,1 km/h (4 Bft)
19.08.2019 03:45 22,6 C 60 % 1012,3 hPa 0,0 l/m 19,3 km/h (3 Bft) SW 225 0,000 mm 14,4 C 19,7 C 24,1 km/h (4 Bft)
19.08.2019 03:44 22,8 C 59 % 1012,3 hPa 0,0 l/m 22,5 km/h (4 Bft) W-SW 247 0,000 mm 14,4 C 19,5 C 29,0 km/h (5 Bft)
19.08.2019 03:43 23,0 C 58 % 1012,2 hPa 0,0 l/m 19,3 km/h (3 Bft) W-SW 247 0,000 mm 14,3 C 20,2 C 27,4 km/h (4 Bft)
19.08.2019 03:42 23,1 C 57 % 1012,1 hPa 0,0 l/m 20,9 km/h (4 Bft) W-SW 247 0,000 mm 14,1 C 20,1 C 29,0 km/h (5 Bft)
19.08.2019 03:41 23,1 C 57 % 1012,1 hPa 0,0 l/m 16,1 km/h (3 Bft) W-SW 247 0,000 mm 14,1 C 20,8 C 22,5 km/h (4 Bft)
19.08.2019 03:40 23,2 C 57 % 1012,0 hPa 0,0 l/m 14,5 km/h (3 Bft) W-SW 247 0,000 mm 14,2 C 21,2 C 19,3 km/h (3 Bft)
19.08.2019 03:39 23,2 C 57 % 1012,0 hPa 0,0 l/m 11,3 km/h (2 Bft) W-SW 247 0,000 mm 14,2 C 21,9 C 19,3 km/h (3 Bft)
19.08.2019 03:38 23,2 C 57 % 1012,1 hPa 0,0 l/m 11,3 km/h (2 Bft) W 270 0,000 mm 14,2 C 21,9 C 16,1 km/h (3 Bft)
19.08.2019 03:37 23,3 C 56 % 1012,1 hPa 0,0 l/m 11,3 km/h (2 Bft) W 270 0,000 mm 14,0 C 22,0 C 19,3 km/h (3 Bft)
19.08.2019 03:36 23,3 C 56 % 1012,1 hPa 0,0 l/m 12,9 km/h (3 Bft) W-SW 247 0,000 mm 14,0 C 21,6 C 17,7 km/h (3 Bft)
19.08.2019 03:35 23,3 C 56 % 1012,0 hPa 0,0 l/m 11,3 km/h (2 Bft) W-NW 292 0,000 mm 14,0 C 22,0 C 16,1 km/h (3 Bft)
19.08.2019 03:34 23,4 C 56 % 1011,9 hPa 0,0 l/m 9,7 km/h (2 Bft) NW 315 0,000 mm 14,1 C 22,5 C 16,1 km/h (3 Bft)
19.08.2019 03:33 23,4 C 56 % 1011,9 hPa 0,0 l/m 9,7 km/h (2 Bft) W 270 0,000 mm 14,1 C 22,5 C 22,5 km/h (4 Bft)
19.08.2019 03:32 23,5 C 56 % 1011,9 hPa 0,0 l/m 8,0 km/h (2 Bft) W 270 0,000 mm 14,2 C 23,0 C 16,1 km/h (3 Bft)
19.08.2019 03:31 23,5 C 55 % 1011,8 hPa 0,0 l/m 11,3 km/h (2 Bft) W 270 0,000 mm 13,9 C 22,2 C 19,3 km/h (3 Bft)
19.08.2019 03:30 23,6 C 55 % 1011,9 hPa 0,0 l/m 14,5 km/h (3 Bft) W 270 0,000 mm 14,0 C 21,7 C 19,3 km/h (3 Bft)
19.08.2019 03:29 23,7 C 55 % 1011,8 hPa 0,0 l/m 12,9 km/h (3 Bft) W-NW 292 0,000 mm 14,1 C 22,1 C 29,0 km/h (5 Bft)
19.08.2019 03:28 23,7 C 54 % 1011,7 hPa 0,0 l/m 20,9 km/h (4 Bft) W-SW 247 0,000 mm 13,8 C 20,9 C 29,0 km/h (5 Bft)
19.08.2019 03:27 23,8 C 54 % 1011,7 hPa 0,0 l/m 12,9 km/h (3 Bft) W 270 0,000 mm 13,9 C 22,2 C 27,4 km/h (4 Bft)
19.08.2019 03:26 23,8 C 54 % 1011,6 hPa 0,0 l/m 12,9 km/h (3 Bft) W 270 0,000 mm 13,9 C 22,2 C 19,3 km/h (3 Bft)
19.08.2019 03:25 23,9 C 53 % 1011,8 hPa 0,0 l/m 12,9 km/h (3 Bft) W-NW 292 0,000 mm 13,7 C 22,3 C 17,7 km/h (3 Bft)
19.08.2019 03:24 24,0 C 53 % 1011,8 hPa 0,0 l/m 17,7 km/h (3 Bft) W 270 0,000 mm 13,8 C 21,7 C 24,1 km/h (4 Bft)
19.08.2019 03:23 24,1 C 53 % 1011,7 hPa 0,0 l/m 8,0 km/h (2 Bft) W-SW 247 0,000 mm 13,9 C 23,7 C 20,9 km/h (4 Bft)
19.08.2019 03:22 24,1 C 52 % 1011,7 hPa 0,0 l/m 6,4 km/h (2 Bft) W-NW 292 0,000 mm 13,6 C 24,1 C 12,9 km/h (3 Bft)
19.08.2019 03:21 24,2 C 52 % 1011,6 hPa 0,0 l/m 11,3 km/h (2 Bft) W-NW 292 0,000 mm 13,7 C 23,0 C 16,1 km/h (3 Bft)
19.08.2019 03:20 24,2 C 52 % 1011,6 hPa 0,0 l/m 12,9 km/h (3 Bft) W 270 0,000 mm 13,7 C 22,7 C 19,3 km/h (3 Bft)
19.08.2019 03:19 24,2 C 52 % 1011,6 hPa 0,0 l/m 11,3 km/h (2 Bft) W 270 0,000 mm 13,7 C 23,0 C 16,1 km/h (3 Bft)
19.08.2019 03:18 24,3 C 52 % 1011,6 hPa 0,0 l/m 9,7 km/h (2 Bft) NW 315 0,000 mm 13,8 C 23,5 C 16,1 km/h (3 Bft)
19.08.2019 03:17 24,3 C 52 % 1011,6 hPa 0,0 l/m 9,7 km/h (2 Bft) W-NW 292 0,000 mm 13,8 C 23,5 C 17,7 km/h (3 Bft)
19.08.2019 03:16 24,3 C 52 % 1011,8 hPa 0,0 l/m 9,7 km/h (2 Bft) W 270 0,000 mm 13,8 C 23,5 C 17,7 km/h (3 Bft)
19.08.2019 03:15 24,4 C 52 % 1011,7 hPa 0,0 l/m 9,7 km/h (2 Bft) W 270 0,000 mm 13,9 C 23,6 C 17,7 km/h (3 Bft)
19.08.2019 03:14 24,4 C 51 % 1011,6 hPa 0,0 l/m 9,7 km/h (2 Bft) W 270 0,000 mm 13,6 C 23,6 C 17,7 km/h (3 Bft)
19.08.2019 03:13 24,4 C 51 % 1011,6 hPa 0,0 l/m 8,0 km/h (2 Bft) W-NW 292 0,000 mm 13,6 C 24,0 C 12,9 km/h (3 Bft)
19.08.2019 03:12 24,5 C 51 % 1011,6 hPa 0,0 l/m 11,3 km/h (2 Bft) W 270 0,000 mm 13,7 C 23,3 C 14,5 km/h (3 Bft)
19.08.2019 03:11 24,5 C 50 % 1011,6 hPa 0,0 l/m 12,9 km/h (3 Bft) W-SW 247 0,000 mm 13,4 C 23,0 C 16,1 km/h (3 Bft)
19.08.2019 03:10 24,6 C 50 % 1011,6 hPa 0,0 l/m 11,3 km/h (2 Bft) W-SW 247 0,000 mm 13,5 C 23,5 C 14,5 km/h (3 Bft)
19.08.2019 03:09 24,6 C 50 % 1011,6 hPa 0,0 l/m 12,9 km/h (3 Bft) W-SW 247 0,000 mm 13,5 C 23,2 C 16,1 km/h (3 Bft)
19.08.2019 03:08 24,6 C 50 % 1011,5 hPa 0,0 l/m 12,9 km/h (3 Bft) W-SW 247 0,000 mm 13,5 C 23,2 C 16,1 km/h (3 Bft)
19.08.2019 03:07 24,6 C 50 % 1011,5 hPa 0,0 l/m 12,9 km/h (3 Bft) W-SW 247 0,000 mm 13,5 C 23,2 C 16,1 km/h (3 Bft)
19.08.2019 03:06 24,5 C 50 % 1011,5 hPa 0,0 l/m 11,3 km/h (2 Bft) W-SW 247 0,000 mm 13,4 C 23,3 C 12,9 km/h (3 Bft)
19.08.2019 03:05 24,4 C 50 % 1011,5 hPa 0,0 l/m 12,9 km/h (3 Bft) W-SW 247 0,000 mm 13,3 C 22,9 C 14,5 km/h (3 Bft)
19.08.2019 03:04 24,4 C 50 % 1011,5 hPa 0,0 l/m 11,3 km/h (2 Bft) W 270 0,000 mm 13,3 C 23,2 C 12,9 km/h (3 Bft)
19.08.2019 03:03 24,3 C 51 % 1011,4 hPa 0,0 l/m 12,9 km/h (3 Bft) W-SW 247 0,000 mm 13,5 C 22,8 C 14,5 km/h (3 Bft)
19.08.2019 03:02 24,2 C 51 % 1011,4 hPa 0,0 l/m 9,7 km/h (2 Bft) W 270 0,000 mm 13,4 C 23,3 C 12,9 km/h (3 Bft)
19.08.2019 03:01 24,2 C 51 % 1011,4 hPa 0,0 l/m 6,4 km/h (2 Bft) W 270 0,000 mm 13,4 C 24,2 C 11,3 km/h (2 Bft)
19.08.2019 03:00 24,1 C 51 % 1011,4 hPa 0,0 l/m 3,2 km/h (1 Bft) W 270 0,000 mm 13,3 C 24,1 C 6,4 km/h (2 Bft)
19.08.2019 02:59 24,1 C 51 % 1011,5 hPa 0,0 l/m 4,8 km/h (1 Bft) W-NW 292 0,000 mm 13,3 C 24,1 C 11,3 km/h (2 Bft)
19.08.2019 02:58 24,0 C 51 % 1011,4 hPa 0,0 l/m 8,0 km/h (2 Bft) W-NW 292 0,000 mm 13,2 C 23,6 C 11,3 km/h (2 Bft)
19.08.2019 02:57 23,9 C 51 % 1011,4 hPa 0,0 l/m 4,8 km/h (1 Bft) W 270 0,000 mm 13,1 C 23,9 C 8,0 km/h (2 Bft)
19.08.2019 02:56 23,8 C 52 % 1011,4 hPa 0,0 l/m 6,4 km/h (2 Bft) W-NW 292 0,000 mm 13,3 C 23,8 C 9,7 km/h (2 Bft)
19.08.2019 02:55 23,8 C 52 % 1011,4 hPa 0,0 l/m 4,8 km/h (1 Bft) W-NW 292 0,000 mm 13,3 C 23,8 C 9,7 km/h (2 Bft)
19.08.2019 02:54 23,7 C 52 % 1011,5 hPa 0,0 l/m 4,8 km/h (1 Bft) W 270 0,000 mm 13,2 C 23,7 C 8,0 km/h (2 Bft)
19.08.2019 02:53 23,6 C 53 % 1011,4 hPa 0,0 l/m 4,8 km/h (1 Bft) W-NW 292 0,000 mm 13,4 C 23,6 C 6,4 km/h (2 Bft)
19.08.2019 02:52 23,6 C 53 % 1011,4 hPa 0,0 l/m 6,4 km/h (2 Bft) W-NW 292 0,000 mm 13,4 C 23,6 C 9,7 km/h (2 Bft)
19.08.2019 02:51 23,4 C 53 % 1011,4 hPa 0,0 l/m 6,4 km/h (2 Bft) W 270 0,000 mm 13,3 C 23,4 C 11,3 km/h (2 Bft)
19.08.2019 02:50 23,4 C 54 % 1011,4 hPa 0,0 l/m 8,0 km/h (2 Bft) W 270 0,000 mm 13,6 C 22,9 C 11,3 km/h (2 Bft)
19.08.2019 02:49 23,4 C 54 % 1011,4 hPa 0,0 l/m 4,8 km/h (1 Bft) W-NW 292 0,000 mm 13,6 C 23,4 C 12,9 km/h (3 Bft)
19.08.2019 02:48 23,3 C 54 % 1011,3 hPa 0,0 l/m 3,2 km/h (1 Bft) W-NW 292 0,000 mm 13,5 C 23,3 C 6,4 km/h (2 Bft)
19.08.2019 02:47 23,3 C 55 % 1011,3 hPa 0,0 l/m 6,4 km/h (2 Bft) W-NW 292 0,000 mm 13,7 C 23,3 C 9,7 km/h (2 Bft)
19.08.2019 02:46 23,3 C 55 % 1011,4 hPa 0,0 l/m 4,8 km/h (1 Bft) W-NW 292 0,000 mm 13,7 C 23,3 C 9,7 km/h (2 Bft)
19.08.2019 02:45 23,3 C 55 % 1011,3 hPa 0,0 l/m 4,8 km/h (1 Bft) W-NW 292 0,000 mm 13,7 C 23,3 C 11,3 km/h (2 Bft)
19.08.2019 02:44 23,3 C 55 % 1011,3 hPa 0,0 l/m 4,8 km/h (1 Bft) W-NW 292 0,000 mm 13,7 C 23,3 C 9,7 km/h (2 Bft)
19.08.2019 02:43 23,3 C 55 % 1011,3 hPa 0,0 l/m 8,0 km/h (2 Bft) W-NW 292 0,000 mm 13,7 C 22,8 C 11,3 km/h (2 Bft)
19.08.2019 02:42 23,3 C 55 % 1011,3 hPa 0,0 l/m 4,8 km/h (1 Bft) W 270 0,000 mm 13,7 C 23,3 C 9,7 km/h (2 Bft)
19.08.2019 02:41 23,3 C 55 % 1011,2 hPa 0,0 l/m 4,8 km/h (1 Bft) NW 315 0,000 mm 13,7 C 23,3 C 9,7 km/h (2 Bft)
19.08.2019 02:40 23,3 C 55 % 1011,2 hPa 0,0 l/m 6,4 km/h (2 Bft) W-NW 292 0,000 mm 13,7 C 23,3 C 11,3 km/h (2 Bft)
19.08.2019 02:39 23,4 C 55 % 1011,2 hPa 0,0 l/m 4,8 km/h (1 Bft) W 270 0,000 mm 13,8 C 23,4 C 6,4 km/h (2 Bft)
19.08.2019 02:38 23,4 C 55 % 1011,2 hPa 0,0 l/m 6,4 km/h (2 Bft) NW 315 0,000 mm 13,8 C 23,4 C 11,3 km/h (2 Bft)
19.08.2019 02:37 23,4 C 55 % 1011,1 hPa 0,0 l/m 6,4 km/h (2 Bft) W-NW 292 0,000 mm 13,8 C 23,4 C 11,3 km/h (2 Bft)
19.08.2019 02:36 23,4 C 54 % 1011,1 hPa 0,0 l/m 4,8 km/h (1 Bft) W 270 0,000 mm 13,6 C 23,4 C 9,7 km/h (2 Bft)
19.08.2019 02:35 23,4 C 54 % 1011,1 hPa 0,0 l/m 4,8 km/h (1 Bft) W-NW 292 0,000 mm 13,6 C 23,4 C 9,7 km/h (2 Bft)
19.08.2019 02:34 23,4 C 54 % 1011,1 hPa 0,0 l/m 8,0 km/h (2 Bft) W 270 0,000 mm 13,6 C 22,9 C 11,3 km/h (2 Bft)
19.08.2019 02:33 23,4 C 54 % 1011,2 hPa 0,0 l/m 6,4 km/h (2 Bft) NW 315 0,000 mm 13,6 C 23,4 C 11,3 km/h (2 Bft)
19.08.2019 02:32 23,5 C 54 % 1011,2 hPa 0,0 l/m 6,4 km/h (2 Bft) W-NW 292 0,000 mm 13,6 C 23,5 C 12,9 km/h (3 Bft)
19.08.2019 02:31 23,6 C 54 % 1011,1 hPa 0,0 l/m 6,4 km/h (2 Bft) NW 315 0,000 mm 13,7 C 23,6 C 12,9 km/h (3 Bft)
19.08.2019 02:30 23,6 C 54 % 1011,1 hPa 0,0 l/m 8,0 km/h (2 Bft) W 270 0,000 mm 13,7 C 23,1 C 12,9 km/h (3 Bft)
19.08.2019 02:29 23,6 C 54 % 1011,1 hPa 0,0 l/m 9,7 km/h (2 Bft) W-SW 247 0,000 mm 13,7 C 22,7 C 12,9 km/h (3 Bft)
19.08.2019 02:28 23,6 C 53 % 1011,1 hPa 0,0 l/m 12,9 km/h (3 Bft) W-SW 247 0,000 mm 13,4 C 22,0 C 16,1 km/h (3 Bft)
19.08.2019 02:27 23,4 C 53 % 1011,1 hPa 0,0 l/m 11,3 km/h (2 Bft) W 270 0,000 mm 13,3 C 22,1 C 14,5 km/h (3 Bft)
19.08.2019 02:26 23,3 C 54 % 1011,0 hPa 0,0 l/m 6,4 km/h (2 Bft) W 270 0,000 mm 13,5 C 23,3 C 9,7 km/h (2 Bft)
19.08.2019 02:25 23,3 C 54 % 1011,0 hPa 0,0 l/m 4,8 km/h (1 Bft) W 270 0,000 mm 13,5 C 23,3 C 8,0 km/h (2 Bft)
19.08.2019 02:24 23,2 C 54 % 1010,9 hPa 0,0 l/m 6,4 km/h (2 Bft) W-NW 292 0,000 mm 13,4 C 23,2 C 9,7 km/h (2 Bft)
19.08.2019 02:23 23,2 C 54 % 1010,9 hPa 0,0 l/m 4,8 km/h (1 Bft) W-NW 292 0,000 mm 13,4 C 23,2 C 8,0 km/h (2 Bft)
19.08.2019 02:22 23,1 C 55 % 1010,9 hPa 0,0 l/m 6,4 km/h (2 Bft) W-NW 292 0,000 mm 13,6 C 23,1 C 8,0 km/h (2 Bft)
19.08.2019 02:21 23,1 C 56 % 1011,0 hPa 0,0 l/m 6,4 km/h (2 Bft) W-NW 292 0,000 mm 13,8 C 23,1 C 8,0 km/h (2 Bft)
19.08.2019 02:20 23,1 C 56 % 1011,0 hPa 0,0 l/m 6,4 km/h (2 Bft) W 270 0,000 mm 13,8 C 23,1 C 9,7 km/h (2 Bft)
19.08.2019 02:19 23,1 C 56 % 1011,0 hPa 0,0 l/m 9,7 km/h (2 Bft) W 270 0,000 mm 13,8 C 22,1 C 12,9 km/h (3 Bft)
19.08.2019 02:18 23,2 C 56 % 1011,1 hPa 0,0 l/m 12,9 km/h (3 Bft) W-SW 247 0,000 mm 13,9 C 21,5 C 14,5 km/h (3 Bft)
19.08.2019 02:17 23,2 C 55 % 1011,1 hPa 0,0 l/m 16,1 km/h (3 Bft) W-SW 247 0,000 mm 13,6 C 20,9 C 19,3 km/h (3 Bft)
19.08.2019 02:16 23,3 C 55 % 1011,0 hPa 0,0 l/m 16,1 km/h (3 Bft) W-SW 247 0,000 mm 13,7 C 21,1 C 17,7 km/h (3 Bft)
19.08.2019 02:15 23,5 C 55 % 1011,1 hPa 0,0 l/m 14,5 km/h (3 Bft) W-SW 247 0,000 mm 13,9 C 21,6 C 17,7 km/h (3 Bft)
19.08.2019 02:14 23,7 C 54 % 1011,0 hPa 0,0 l/m 16,1 km/h (3 Bft) W 270 0,000 mm 13,8 C 21,6 C 19,3 km/h (3 Bft)
19.08.2019 02:13 23,7 C 53 % 1011,0 hPa 0,0 l/m 14,5 km/h (3 Bft) W-SW 247 0,000 mm 13,5 C 21,8 C 16,1 km/h (3 Bft)
19.08.2019 02:12 23,6 C 53 % 1010,9 hPa 0,0 l/m 9,7 km/h (2 Bft) W-SW 247 0,000 mm 13,4 C 22,7 C 12,9 km/h (3 Bft)
19.08.2019 02:11 23,6 C 53 % 1010,9 hPa 0,0 l/m 6,4 km/h (2 Bft) W-SW 247 0,000 mm 13,4 C 23,6 C 8,0 km/h (2 Bft)
19.08.2019 02:10 23,5 C 53 % 1010,9 hPa 0,0 l/m 4,8 km/h (1 Bft) W-SW 247 0,000 mm 13,4 C 23,5 C 6,4 km/h (2 Bft)
19.08.2019 02:09 23,5 C 53 % 1010,9 hPa 0,0 l/m 6,4 km/h (2 Bft) W-SW 247 0,000 mm 13,4 C 23,5 C 6,4 km/h (2 Bft)
19.08.2019 02:08 23,6 C 54 % 1010,9 hPa 0,0 l/m 6,4 km/h (2 Bft) W 270 0,000 mm 13,7 C 23,6 C 9,7 km/h (2 Bft)
19.08.2019 02:07 23,7 C 53 % 1011,0 hPa 0,0 l/m 9,7 km/h (2 Bft) W-SW 247 0,000 mm 13,5 C 22,8 C 11,3 km/h (2 Bft)
19.08.2019 02:06 23,9 C 53 % 1011,0 hPa 0,0 l/m 9,7 km/h (2 Bft) W-SW 247 0,000 mm 13,7 C 23,0 C 12,9 km/h (3 Bft)
19.08.2019 02:05 24,1 C 52 % 1010,9 hPa 0,0 l/m 12,9 km/h (3 Bft) W-SW 247 0,000 mm 13,6 C 22,6 C 14,5 km/h (3 Bft)
19.08.2019 02:04 24,2 C 51 % 1011,0 hPa 0,0 l/m 12,9 km/h (3 Bft) N-NO 22 0,000 mm 13,4 C 22,7 C 12,9 km/h (3 Bft)
19.08.2019 02:03 24,2 C 50 % 1010,9 hPa 0,0 l/m 4,8 km/h (1 Bft) N-NO 22 0,000 mm 13,1 C 24,2 C 9,7 km/h (2 Bft)
19.08.2019 02:02 24,2 C 50 % 1010,9 hPa 0,0 l/m 1,6 km/h (1 Bft) NO 45 0,000 mm 13,1 C 24,2 C 3,2 km/h (1 Bft)
19.08.2019 02:01 24,2 C 50 % 1010,9 hPa 0,0 l/m 3,2 km/h (1 Bft) NO 45 0,000 mm 13,1 C 24,2 C 3,2 km/h (1 Bft)
19.08.2019 02:00 24,2 C 50 % 1010,8 hPa 0,0 l/m 4,8 km/h (1 Bft) NO 45 0,000 mm 13,1 C 24,2 C 6,4 km/h (2 Bft)
19.08.2019 01:59 24,2 C 50 % 1010,8 hPa 0,0 l/m 4,8 km/h (1 Bft) NO 45 0,000 mm 13,1 C 24,2 C 6,4 km/h (2 Bft)
19.08.2019 01:58 24,2 C 50 % 1010,8 hPa 0,0 l/m 6,4 km/h (2 Bft) NO 45 0,000 mm 13,1 C 24,2 C 6,4 km/h (2 Bft)
19.08.2019 01:57 24,2 C 50 % 1010,7 hPa 0,0 l/m 4,8 km/h (1 Bft) NO 45 0,000 mm 13,1 C 24,2 C 6,4 km/h (2 Bft)
19.08.2019 01:56 24,2 C 50 % 1010,7 hPa 0,0 l/m 6,4 km/h (2 Bft) O-NO 67 0,000 mm 13,1 C 24,2 C 8,0 km/h (2 Bft)
19.08.2019 01:55 24,2 C 50 % 1010,7 hPa 0,0 l/m 8,0 km/h (2 Bft) NO 45 0,000 mm 13,1 C 23,8 C 11,3 km/h (2 Bft)
19.08.2019 01:54 24,2 C 50 % 1010,6 hPa 0,0 l/m 6,4 km/h (2 Bft) NO 45 0,000 mm 13,1 C 24,2 C 6,4 km/h (2 Bft)
19.08.2019 01:53 24,2 C 50 % 1010,6 hPa 0,0 l/m 6,4 km/h (2 Bft) NO 45 0,000 mm 13,1 C 24,2 C 6,4 km/h (2 Bft)
19.08.2019 01:52 24,2 C 50 % 1010,6 hPa 0,0 l/m 6,4 km/h (2 Bft) NO 45 0,000 mm 13,1 C 24,2 C 8,0 km/h (2 Bft)
19.08.2019 01:51 24,2 C 50 % 1010,6 hPa 0,0 l/m 8,0 km/h (2 Bft) O-NO 67 0,000 mm 13,1 C 23,8 C 9,7 km/h (2 Bft)
19.08.2019 01:50 24,2 C 50 % 1010,6 hPa 0,0 l/m 8,0 km/h (2 Bft) O-NO 67 0,000 mm 13,1 C 23,8 C 9,7 km/h (2 Bft)
19.08.2019 01:49 24,2 C 50 % 1010,6 hPa 0,0 l/m 8,0 km/h (2 Bft) O-NO 67 0,000 mm 13,1 C 23,8 C 9,7 km/h (2 Bft)
19.08.2019 01:48 24,2 C 50 % 1010,5 hPa 0,0 l/m 8,0 km/h (2 Bft) O-NO 67 0,000 mm 13,1 C 23,8 C 8,0 km/h (2 Bft)
19.08.2019 01:47 24,2 C 50 % 1010,5 hPa 0,0 l/m 6,4 km/h (2 Bft) O-NO 67 0,000 mm 13,1 C 24,2 C 8,0 km/h (2 Bft)
19.08.2019 01:46 24,2 C 50 % 1010,5 hPa 0,0 l/m 9,7 km/h (2 Bft) O-NO 67 0,000 mm 13,1 C 23,3 C 12,9 km/h (3 Bft)
19.08.2019 01:45 24,2 C 50 % 1010,5 hPa 0,0 l/m 6,4 km/h (2 Bft) O-NO 67 0,000 mm 13,1 C 24,2 C 9,7 km/h (2 Bft)
19.08.2019 01:44 24,2 C 50 % 1010,5 hPa 0,0 l/m 8,0 km/h (2 Bft) O-NO 67 0,000 mm 13,1 C 23,8 C 9,7 km/h (2 Bft)
19.08.2019 01:43 24,2 C 50 % 1010,5 hPa 0,0 l/m 8,0 km/h (2 Bft) O-NO 67 0,000 mm 13,1 C 23,8 C 11,3 km/h (2 Bft)
19.08.2019 01:42 24,2 C 50 % 1010,5 hPa 0,0 l/m 8,0 km/h (2 Bft) O-NO 67 0,000 mm 13,1 C 23,8 C 11,3 km/h (2 Bft)
19.08.2019 01:41 24,2 C 51 % 1010,4 hPa 0,0 l/m 6,4 km/h (2 Bft) O-NO 67 0,000 mm 13,4 C 24,2 C 8,0 km/h (2 Bft)
19.08.2019 01:40 24,2 C 50 % 1010,4 hPa 0,0 l/m 9,7 km/h (2 Bft) O-NO 67 0,000 mm 13,1 C 23,3 C 12,9 km/h (3 Bft)
19.08.2019 01:39 24,2 C 51 % 1010,4 hPa 0,0 l/m 9,7 km/h (2 Bft) O-NO 67 0,000 mm 13,4 C 23,3 C 12,9 km/h (3 Bft)
19.08.2019 01:38 24,2 C 51 % 1010,4 hPa 0,0 l/m 9,7 km/h (2 Bft) O-NO 67 0,000 mm 13,4 C 23,3 C 12,9 km/h (3 Bft)
19.08.2019 01:37 24,2 C 50 % 1010,4 hPa 0,0 l/m 11,3 km/h (2 Bft) O-NO 67 0,000 mm 13,1 C 23,0 C 14,5 km/h (3 Bft)
19.08.2019 01:36 24,2 C 51 % 1010,5 hPa 0,0 l/m 8,0 km/h (2 Bft) O-NO 67 0,000 mm 13,4 C 23,8 C 9,7 km/h (2 Bft)
19.08.2019 01:35 24,2 C 51 % 1010,5 hPa 0,0 l/m 8,0 km/h (2 Bft) NO 45 0,000 mm 13,4 C 23,8 C 14,5 km/h (3 Bft)
19.08.2019 01:34 24,2 C 51 % 1010,5 hPa 0,0 l/m 8,0 km/h (2 Bft) O-NO 67 0,000 mm 13,4 C 23,8 C 11,3 km/h (2 Bft)
19.08.2019 01:33 24,2 C 51 % 1010,4 hPa 0,0 l/m 8,0 km/h (2 Bft) O-NO 67 0,000 mm 13,4 C 23,8 C 11,3 km/h (2 Bft)
19.08.2019 01:32 24,2 C 51 % 1010,4 hPa 0,0 l/m 8,0 km/h (2 Bft) NO 45 0,000 mm 13,4 C 23,8 C 9,7 km/h (2 Bft)
19.08.2019 01:31 24,2 C 51 % 1010,4 hPa 0,0 l/m 9,7 km/h (2 Bft) NO 45 0,000 mm 13,4 C 23,3 C 11,3 km/h (2 Bft)
19.08.2019 01:30 24,2 C 50 % 1010,4 hPa 0,0 l/m 9,7 km/h (2 Bft) O-NO 67 0,000 mm 13,1 C 23,3 C 12,9 km/h (3 Bft)
19.08.2019 01:29 24,2 C 51 % 1010,4 hPa 0,0 l/m 11,3 km/h (2 Bft) O-NO 67 0,000 mm 13,4 C 23,0 C 14,5 km/h (3 Bft)
19.08.2019 01:28 24,2 C 51 % 1010,3 hPa 0,0 l/m 12,9 km/h (3 Bft) O-NO 67 0,000 mm 13,4 C 22,7 C 14,5 km/h (3 Bft)
19.08.2019 01:27 24,3 C 51 % 1010,3 hPa 0,0 l/m 11,3 km/h (2 Bft) O-NO 67 0,000 mm 13,5 C 23,1 C 14,5 km/h (3 Bft)
19.08.2019 01:26 24,3 C 51 % 1010,2 hPa 0,0 l/m 14,5 km/h (3 Bft) O-NO 67 0,000 mm 13,5 C 22,5 C 17,7 km/h (3 Bft)
19.08.2019 01:25 24,3 C 51 % 1010,2 hPa 0,0 l/m 14,5 km/h (3 Bft) NO 45 0,000 mm 13,5 C 22,5 C 16,1 km/h (3 Bft)
19.08.2019 01:24 24,3 C 51 % 1010,2 hPa 0,0 l/m 12,9 km/h (3 Bft) NO 45 0,000 mm 13,5 C 22,8 C 16,1 km/h (3 Bft)
19.08.2019 01:23 24,3 C 51 % 1009,9 hPa 0,0 l/m 16,1 km/h (3 Bft) O-NO 67 0,000 mm 13,5 C 22,3 C 19,3 km/h (3 Bft)
19.08.2019 01:22 24,2 C 51 % 1010,2 hPa 0,0 l/m 17,7 km/h (3 Bft) O-NO 67 0,000 mm 13,4 C 21,9 C 20,9 km/h (4 Bft)
19.08.2019 01:21 24,2 C 51 % 1010,2 hPa 0,0 l/m 14,5 km/h (3 Bft) NO 45 0,000 mm 13,4 C 22,4 C 17,7 km/h (3 Bft)
19.08.2019 01:20 24,2 C 51 % 1010,3 hPa 0,0 l/m 14,5 km/h (3 Bft) NO 45 0,000 mm 13,4 C 22,4 C 19,3 km/h (3 Bft)
19.08.2019 01:19 24,2 C 51 % 1010,1 hPa 0,0 l/m 12,9 km/h (3 Bft) NO 45 0,000 mm 13,4 C 22,7 C 16,1 km/h (3 Bft)
19.08.2019 01:18 24,2 C 51 % 1010,1 hPa 0,0 l/m 16,1 km/h (3 Bft) NO 45 0,000 mm 13,4 C 22,2 C 19,3 km/h (3 Bft)
19.08.2019 01:17 24,2 C 51 % 1010,0 hPa 0,0 l/m 14,5 km/h (3 Bft) NO 45 0,000 mm 13,4 C 22,4 C 19,3 km/h (3 Bft)
19.08.2019 01:16 24,3 C 51 % 1010,2 hPa 0,0 l/m 14,5 km/h (3 Bft) NO 45 0,000 mm 13,5 C 22,5 C 17,7 km/h (3 Bft)
19.08.2019 01:15 24,3 C 51 % 1010,1 hPa 0,0 l/m 16,1 km/h (3 Bft) NO 45 0,000 mm 13,5 C 22,3 C 17,7 km/h (3 Bft)
19.08.2019 01:14 24,3 C 51 % 1010,1 hPa 0,0 l/m 12,9 km/h (3 Bft) NO 45 0,000 mm 13,5 C 22,8 C 16,1 km/h (3 Bft)
19.08.2019 01:13 24,3 C 51 % 1010,1 hPa 0,0 l/m 16,1 km/h (3 Bft) NO 45 0,000 mm 13,5 C 22,3 C 19,3 km/h (3 Bft)
19.08.2019 01:12 24,3 C 51 % 1010,0 hPa 0,0 l/m 14,5 km/h (3 Bft) O-NO 67 0,000 mm 13,5 C 22,5 C 19,3 km/h (3 Bft)
19.08.2019 01:11 24,2 C 51 % 1010,0 hPa 0,0 l/m 17,7 km/h (3 Bft) O-NO 67 0,000 mm 13,4 C 21,9 C 20,9 km/h (4 Bft)
19.08.2019 01:10 24,2 C 51 % 1010,0 hPa 0,0 l/m 17,7 km/h (3 Bft) NO 45 0,000 mm 13,4 C 21,9 C 19,3 km/h (3 Bft)
19.08.2019 01:09 24,2 C 51 % 1010,0 hPa 0,0 l/m 16,1 km/h (3 Bft) NO 45 0,000 mm 13,4 C 22,2 C 17,7 km/h (3 Bft)
19.08.2019 01:08 24,2 C 51 % 1010,0 hPa 0,0 l/m 16,1 km/h (3 Bft) O-NO 67 0,000 mm 13,4 C 22,2 C 20,9 km/h (4 Bft)
19.08.2019 01:07 24,2 C 51 % 1010,0 hPa 0,0 l/m 16,1 km/h (3 Bft) NO 45 0,000 mm 13,4 C 22,2 C 17,7 km/h (3 Bft)
19.08.2019 01:06 24,2 C 51 % 1010,0 hPa 0,0 l/m 16,1 km/h (3 Bft) O-NO 67 0,000 mm 13,4 C 22,2 C 19,3 km/h (3 Bft)
19.08.2019 01:05 24,2 C 51 % 1009,9 hPa 0,0 l/m 17,7 km/h (3 Bft) O-NO 67 0,000 mm 13,4 C 21,9 C 20,9 km/h (4 Bft)
19.08.2019 01:04 24,2 C 51 % 1009,9 hPa 0,0 l/m 16,1 km/h (3 Bft) O-NO 67 0,000 mm 13,4 C 22,2 C 20,9 km/h (4 Bft)
19.08.2019 01:03 24,2 C 51 % 1009,9 hPa 0,0 l/m 17,7 km/h (3 Bft) NO 45 0,000 mm 13,4 C 21,9 C 19,3 km/h (3 Bft)
19.08.2019 01:02 24,2 C 51 % 1009,9 hPa 0,0 l/m 16,1 km/h (3 Bft) NO 45 0,000 mm 13,4 C 22,2 C 17,7 km/h (3 Bft)
19.08.2019 01:01 24,2 C 52 % 1010,0 hPa 0,0 l/m 14,5 km/h (3 Bft) NO 45 0,000 mm 13,7 C 22,4 C 17,7 km/h (3 Bft)
19.08.2019 01:00 24,3 C 51 % 1009,9 hPa 0,0 l/m 16,1 km/h (3 Bft) O-NO 67 0,000 mm 13,5 C 22,3 C 20,9 km/h (4 Bft)
19.08.2019 00:59 24,3 C 51 % 1009,9 hPa 0,0 l/m 19,3 km/h (3 Bft) O-NO 67 0,000 mm 13,5 C 21,8 C 22,5 km/h (4 Bft)
19.08.2019 00:58 24,3 C 51 % 1009,9 hPa 0,0 l/m 17,7 km/h (3 Bft) O-NO 67 0,000 mm 13,5 C 22,1 C 20,9 km/h (4 Bft)
19.08.2019 00:57 24,3 C 51 % 1009,9 hPa 0,0 l/m 17,7 km/h (3 Bft) O-NO 67 0,000 mm 13,5 C 22,1 C 22,5 km/h (4 Bft)
19.08.2019 00:56 24,3 C 51 % 1010,0 hPa 0,0 l/m 16,1 km/h (3 Bft) O-NO 67 0,000 mm 13,5 C 22,3 C 22,5 km/h (4 Bft)
19.08.2019 00:55 24,3 C 51 % 1009,9 hPa 0,0 l/m 16,1 km/h (3 Bft) O-NO 67 0,000 mm 13,5 C 22,3 C 20,9 km/h (4 Bft)
19.08.2019 00:54 24,3 C 51 % 1010,0 hPa 0,0 l/m 17,7 km/h (3 Bft) O-NO 67 0,000 mm 13,5 C 22,1 C 20,9 km/h (4 Bft)
19.08.2019 00:53 24,3 C 51 % 1009,9 hPa 0,0 l/m 16,1 km/h (3 Bft) O-NO 67 0,000 mm 13,5 C 22,3 C 25,7 km/h (4 Bft)
19.08.2019 00:52 24,4 C 51 % 1009,8 hPa 0,0 l/m 16,1 km/h (3 Bft) O-NO 67 0,000 mm 13,6 C 22,4 C 20,9 km/h (4 Bft)
19.08.2019 00:51 24,4 C 51 % 1009,9 hPa 0,0 l/m 17,7 km/h (3 Bft) O-NO 67 0,000 mm 13,6 C 22,2 C 20,9 km/h (4 Bft)
19.08.2019 00:50 24,4 C 51 % 1009,8 hPa 0,0 l/m 16,1 km/h (3 Bft) O-NO 67 0,000 mm 13,6 C 22,4 C 19,3 km/h (3 Bft)
19.08.2019 00:49 24,4 C 51 % 1009,9 hPa 0,0 l/m 12,9 km/h (3 Bft) O-NO 67 0,000 mm 13,6 C 22,9 C 19,3 km/h (3 Bft)
19.08.2019 00:48 24,4 C 50 % 1009,8 hPa 0,0 l/m 17,7 km/h (3 Bft) O-NO 67 0,000 mm 13,3 C 22,2 C 20,9 km/h (4 Bft)
19.08.2019 00:47 24,4 C 50 % 1009,8 hPa 0,0 l/m 19,3 km/h (3 Bft) O-NO 67 0,000 mm 13,3 C 22,0 C 27,4 km/h (4 Bft)
19.08.2019 00:46 24,4 C 50 % 1009,9 hPa 0,0 l/m 19,3 km/h (3 Bft) O-NO 67 0,000 mm 13,3 C 22,0 C 24,1 km/h (4 Bft)
19.08.2019 00:45 24,4 C 50 % 1009,8 hPa 0,0 l/m 14,5 km/h (3 Bft) O-NO 67 0,000 mm 13,3 C 22,7 C 20,9 km/h (4 Bft)
19.08.2019 00:44 24,5 C 51 % 1009,8 hPa 0,0 l/m 17,7 km/h (3 Bft) O-NO 67 0,000 mm 13,7 C 22,3 C 20,9 km/h (4 Bft)
19.08.2019 00:43 24,6 C 50 % 1009,8 hPa 0,0 l/m 16,1 km/h (3 Bft) O-NO 67 0,000 mm 13,5 C 22,7 C 20,9 km/h (4 Bft)
19.08.2019 00:42 24,6 C 50 % 1009,9 hPa 0,0 l/m 12,9 km/h (3 Bft) O-NO 67 0,000 mm 13,5 C 23,2 C 19,3 km/h (3 Bft)
19.08.2019 00:41 24,6 C 50 % 1009,9 hPa 0,0 l/m 14,5 km/h (3 Bft) O-NO 67 0,000 mm 13,5 C 22,9 C 22,5 km/h (4 Bft)
19.08.2019 00:40 24,6 C 50 % 1009,9 hPa 0,0 l/m 9,7 km/h (2 Bft) O-NO 67 0,000 mm 13,5 C 23,8 C 14,5 km/h (3 Bft)
19.08.2019 00:39 24,7 C 50 % 1009,8 hPa 0,2 l/m 14,5 km/h (3 Bft) O-NO 67 0,000 mm 13,6 C 23,0 C 19,3 km/h (3 Bft)
19.08.2019 00:38 24,7 C 50 % 1009,9 hPa 0,0 l/m 12,9 km/h (3 Bft) O-NO 67 0,000 mm 13,6 C 23,3 C 17,7 km/h (3 Bft)
19.08.2019 00:37 24,7 C 50 % 1009,9 hPa 0,0 l/m 11,3 km/h (2 Bft) O-NO 67 0,000 mm 13,6 C 23,6 C 16,1 km/h (3 Bft)
19.08.2019 00:36 24,7 C 50 % 1009,9 hPa 0,0 l/m 12,9 km/h (3 Bft) O-NO 67 0,000 mm 13,6 C 23,3 C 19,3 km/h (3 Bft)
19.08.2019 00:35 24,7 C 50 % 1009,8 hPa 0,0 l/m 14,5 km/h (3 Bft) O-NO 67 0,000 mm 13,6 C 23,0 C 22,5 km/h (4 Bft)
19.08.2019 00:34 24,8 C 49 % 1010,0 hPa 0,0 l/m 8,0 km/h (2 Bft) O-NO 67 0,000 mm 13,3 C 24,4 C 19,3 km/h (3 Bft)
19.08.2019 00:33 24,8 C 50 % 1009,9 hPa 0,0 l/m 8,0 km/h (2 Bft) N-NO 22 0,000 mm 13,7 C 24,4 C 17,7 km/h (3 Bft)
19.08.2019 00:32 24,8 C 50 % 1010,0 hPa 0,0 l/m 6,4 km/h (2 Bft) O-NO 67 0,000 mm 13,7 C 24,8 C 12,9 km/h (3 Bft)
19.08.2019 00:31 24,8 C 50 % 1010,0 hPa 0,0 l/m 6,4 km/h (2 Bft) O-NO 67 0,000 mm 13,7 C 24,8 C 8,0 km/h (2 Bft)
19.08.2019 00:30 24,9 C 50 % 1010,0 hPa 0,0 l/m 8,0 km/h (2 Bft) NO 45 0,000 mm 13,7 C 24,5 C 14,5 km/h (3 Bft)
19.08.2019 00:29 24,9 C 49 % 1010,0 hPa 0,0 l/m 6,4 km/h (2 Bft) NO 45 0,000 mm 13,4 C 24,9 C 12,9 km/h (3 Bft)
19.08.2019 00:28 24,9 C 49 % 1010,0 hPa 0,0 l/m 6,4 km/h (2 Bft) O-NO 67 0,000 mm 13,4 C 24,9 C 11,3 km/h (2 Bft)
19.08.2019 00:27 24,9 C 49 % 1010,0 hPa 0,0 l/m 4,8 km/h (1 Bft) NO 45 0,000 mm 13,4 C 24,9 C 12,9 km/h (3 Bft)
19.08.2019 00:26 24,9 C 49 % 1010,0 hPa 0,0 l/m 9,7 km/h (2 Bft) O-NO 67 0,000 mm 13,4 C 24,1 C 17,7 km/h (3 Bft)
19.08.2019 00:25 25,0 C 49 % 1010,0 hPa 0,0 l/m 6,4 km/h (2 Bft) N-NO 22 0,000 mm 13,5 C 25,0 C 12,9 km/h (3 Bft)
19.08.2019 00:24 25,0 C 49 % 1010,0 hPa 0,0 l/m 8,0 km/h (2 Bft) O-NO 67 0,000 mm 13,5 C 24,6 C 16,1 km/h (3 Bft)
19.08.2019 00:23 25,0 C 49 % 1009,9 hPa 0,0 l/m 8,0 km/h (2 Bft) O 90 0,000 mm 13,5 C 24,6 C 14,5 km/h (3 Bft)
19.08.2019 00:22 25,1 C 49 % 1009,9 hPa 0,0 l/m 6,4 km/h (2 Bft) O 90 0,000 mm 13,6 C 25,1 C 12,9 km/h (3 Bft)
19.08.2019 00:21 25,1 C 49 % 1010,0 hPa 0,0 l/m 6,4 km/h (2 Bft) N-NO 22 0,000 mm 13,6 C 25,1 C 9,7 km/h (2 Bft)
19.08.2019 00:20 25,1 C 49 % 1010,0 hPa 0,0 l/m 6,4 km/h (2 Bft) O-NO 67 0,000 mm 13,6 C 25,1 C 14,5 km/h (3 Bft)
19.08.2019 00:19 25,1 C 49 % 1010,1 hPa 0,0 l/m 8,0 km/h (2 Bft) O-NO 67 0,000 mm 13,6 C 24,7 C 14,5 km/h (3 Bft)
19.08.2019 00:18 25,1 C 49 % 1010,0 hPa 0,0 l/m 8,0 km/h (2 Bft) O-SO 112 0,000 mm 13,6 C 24,7 C 14,5 km/h (3 Bft)
19.08.2019 00:17 25,1 C 49 % 1010,1 hPa 0,0 l/m 8,0 km/h (2 Bft) O 90 0,000 mm 13,6 C 24,7 C 14,5 km/h (3 Bft)
19.08.2019 00:16 25,1 C 49 % 1010,0 hPa 0,0 l/m 11,3 km/h (2 Bft) O-NO 67 0,000 mm 13,6 C 24,0 C 16,1 km/h (3 Bft)
19.08.2019 00:15 25,1 C 49 % 1010,1 hPa 0,0 l/m 9,7 km/h (2 Bft) O-NO 67 0,000 mm 13,6 C 24,3 C 14,5 km/h (3 Bft)
19.08.2019 00:14 25,2 C 49 % 1010,1 hPa 0,0 l/m 11,3 km/h (2 Bft) O-NO 67 0,000 mm 13,7 C 24,1 C 19,3 km/h (3 Bft)
19.08.2019 00:13 25,2 C 49 % 1010,1 hPa 0,0 l/m 6,4 km/h (2 Bft) O-NO 67 0,000 mm 13,7 C 25,2 C 11,3 km/h (2 Bft)
19.08.2019 00:12 25,2 C 49 % 1010,0 hPa 0,0 l/m 11,3 km/h (2 Bft) O-NO 67 0,000 mm 13,7 C 24,1 C 17,7 km/h (3 Bft)
19.08.2019 00:11 25,2 C 49 % 1010,0 hPa 0,0 l/m 14,5 km/h (3 Bft) O 90 0,000 mm 13,7 C 23,6 C 22,5 km/h (4 Bft)
19.08.2019 00:10 25,2 C 49 % 1010,0 hPa 0,0 l/m 11,3 km/h (2 Bft) O-NO 67 0,000 mm 13,7 C 24,1 C 19,3 km/h (3 Bft)
19.08.2019 00:09 25,3 C 48 % 1010,0 hPa 0,0 l/m 11,3 km/h (2 Bft) O-NO 67 0,000 mm 13,5 C 24,3 C 17,7 km/h (3 Bft)
19.08.2019 00:08 25,3 C 48 % 1010,0 hPa 0,0 l/m 12,9 km/h (3 Bft) O-NO 67 0,000 mm 13,5 C 24,0 C 17,7 km/h (3 Bft)
19.08.2019 00:07 25,3 C 48 % 1010,0 hPa 0,0 l/m 14,5 km/h (3 Bft) O-NO 67 0,000 mm 13,5 C 23,7 C 19,3 km/h (3 Bft)
19.08.2019 00:06 25,3 C 48 % 1009,8 hPa 0,0 l/m 16,1 km/h (3 Bft) O-NO 67 0,000 mm 13,5 C 23,5 C 22,5 km/h (4 Bft)
19.08.2019 00:05 25,3 C 48 % 1009,9 hPa 0,0 l/m 16,1 km/h (3 Bft) O-NO 67 0,000 mm 13,5 C 23,5 C 20,9 km/h (4 Bft)
19.08.2019 00:04 25,3 C 48 % 1009,8 hPa 0,0 l/m 17,7 km/h (3 Bft) O-NO 67 0,000 mm 13,5 C 23,3 C 22,5 km/h (4 Bft)
19.08.2019 00:03 25,3 C 48 % 1009,8 hPa 0,0 l/m 20,9 km/h (4 Bft) O-NO 67 0,000 mm 13,5 C 23,0 C 27,4 km/h (4 Bft)
19.08.2019 00:02 25,3 C 48 % 1009,9 hPa 0,0 l/m 19,3 km/h (3 Bft) O-NO 67 0,000 mm 13,5 C 23,1 C 27,4 km/h (4 Bft)
19.08.2019 00:01 25,3 C 48 % 1009,8 hPa 0,0 l/m 17,7 km/h (3 Bft) O-NO 67 0,000 mm 13,5 C 23,3 C 25,7 km/h (4 Bft)
19.08.2019 00:00 25,2 C 48 % 1010,0 hPa 0,0 l/m 14,5 km/h (3 Bft) O-NO 67 0,000 mm 13,4 C 23,6 C 20,9 km/h (4 Bft)
_ Min-Zeit 07:55 00:00 00:01 - 02:02 - - - 01:30 06:25 02:01
Minimum _ 16,4 C 48 % 1009,8 hPa - 1,6 km/h (1 Bft) - - - 13,1 C 10,5 C 3,2 km/h (1 Bft)
_ Max-Zeit 00:01 07:53 08:45 00:39 04:42 - - 00:00 04:53 00:13 04:59
Maximum _ 25,3 C 85 % 1017,2 hPa 0,2 l/m 45,1 km/h
W-SW (6 Bft)
- - 0,000 mm 15,3 C 25,2 C 64,4 km/h
W-SW (8 Bft)
Durchschnitt _ 20,6 C 67 % 1013,5 hPa #0,2 l/m 17,9 km/h (3 Bft) SW - #0,000 mm 13,8 C 17,5 C 23,6 km/h (4 Bft)